DW6912 Weather Reports


Display with metric or nautical units.
time (UTC)temp
F
wind
direction
speed
MPH
gust
MPH
rain 1hr
in
rain 24hr
in
rain mn
in
humidity
%
barometer
mb
20260904171200 84 329 1.0 2.0 0.00 0.08 0.02 74 1012.5
20260904171057 84 329 2.0 2.0 0.00 0.08 0.02 73 1012.4
20260904170958 84 329 0.0 2.0 0.00 0.08 0.02 73 1012.5
20260904170858 84 329 1.0 2.0 0.00 0.08 0.02 73 1012.5
20260904170758 84 330 1.0 2.0 0.00 0.08 0.02 74 1012.4
20260904170658 84 55 1.0 2.0 0.00 0.08 0.02 73 1012.4
20260904170558 84 55 0.0 2.0 0.00 0.08 0.02 74 1012.4
20260904170500 84 55 1.0 2.0 0.00 0.08 0.02 75 1012.4
20260904170358 84 55 1.0 2.0 0.00 0.08 0.02 77 1012.4
20260904170258 83 55 2.0 2.0 0.00 0.08 0.02 76 1012.4
20260904170158 83 265 0.0 2.0 0.00 0.08 0.02 74 1012.4
20260904170002 83 265 0.0 2.0 0.00 0.08 0.02 75 1012.4
20260904165859 83 265 0.0 3.0 0.00 0.08 0.02 74 1012.4
20260904165800 83 265 0.0 3.0 0.00 0.08 0.02 74 1012.4
20260904165500 84 36 0.0 3.0 0.00 0.08 0.02 73 1012.4
20260904165300 84 36 2.0 3.0 0.00 0.08 0.02 76 1012.4
20260904165159 83 36 0.0 3.0 0.00 0.08 0.02 75 1012.4
20260904165100 83 36 1.0 3.0 0.00 0.08 0.02 74 1012.4
20260904165001 83 38 1.0 3.0 0.00 0.08 0.02 74 1012.4
20260904164859 83 215 1.0 3.0 0.00 0.08 0.02 74 1012.5
20260904164759 83 63 3.0 3.0 0.00 0.08 0.02 75 1012.5
20260904164700 83 284 0.0 2.0 0.00 0.08 0.02 76 1012.5
20260904164501 83 284 0.0 2.0 0.00 0.08 0.02 74 1012.5
20260904164400 83 284 2.0 2.0 0.00 0.08 0.02 74 1012.4
20260904164300 83 284 0.0 2.0 0.00 0.08 0.02 75 1012.4
20260904164159 83 284 0.0 2.0 0.00 0.08 0.02 74 1012.4
20260904164100 83 284 0.0 2.0 0.00 0.08 0.02 76 1012.4
20260904163900 83 284 0.0 3.0 0.00 0.08 0.02 75 1012.4
20260904163759 83 284 0.0 3.0 0.00 0.08 0.02 76 1012.4
20260904163659 83 284 1.0 3.0 0.00 0.08 0.02 76 1012.5
20260904163600 83 284 0.0 3.0 0.00 0.08 0.02 76 1012.5
20260904163400 83 283 2.0 3.0 0.00 0.08 0.02 78 1012.6
20260904163259 83 283 0.0 3.0 0.00 0.08 0.02 78 1012.5
20260904163158 83 283 2.0 3.0 0.00 0.08 0.02 74 1012.6
20260904163100 83 285 0.0 4.0 0.00 0.08 0.02 74 1012.6
20260904162859 83 285 1.0 4.0 0.00 0.08 0.02 73 1012.6
20260904162759 84 285 1.0 4.0 0.00 0.08 0.02 73 1012.6
20260904162559 84 5 1.0 4.0 0.00 0.08 0.02 76 1012.5
20260904162500 84 10 1.0 4.0 0.00 0.08 0.02 76 1012.5
20260904162400 84 10 1.0 4.0 0.00 0.08 0.02 78 1012.5
20260904162301 84 10 2.0 4.0 0.00 0.08 0.02 79 1012.5
20260904162159 83 248 1.0 3.0 0.00 0.08 0.02 80 1012.5
20260904162104 83 244 0.0 3.0 0.00 0.08 0.02 76 1012.5
20260904162004 83 244 3.0 3.0 0.00 0.08 0.02 76 1012.5
20260904161859 83 292 0.0 3.0 0.00 0.08 0.02 77 1012.6
20260904161759 83 292 1.0 3.0 0.00 0.08 0.02 79 1012.6
20260904161659 83 294 1.0 3.0 0.00 0.08 0.02 76 1012.6
20260904161559 83 294 0.0 3.0 0.00 0.08 0.02 76 1012.6
20260904161504 83 294 0.0 3.0 0.00 0.08 0.02 76 1012.6
20260904161401 83 294 0.0 3.0 0.00 0.08 0.02 78 1012.7
20260904161303 83 294 1.0 3.0 0.00 0.08 0.02 78 1012.7
20260904161200 83 292 2.0 3.0 0.00 0.08 0.02 80 1012.7
20260904161002 82 287 1.0 2.0 0.00 0.08 0.02 78 1012.7
20260904160859 82 288 2.0 2.0 0.00 0.08 0.02 78 1012.7
20260904160800 82 288 0.0 2.0 0.00 0.08 0.02 79 1012.7
20260904160659 82 288 0.0 3.0 0.00 0.08 0.02 78 1012.7
20260904160502 82 287 2.0 4.0 0.00 0.08 0.02 79 1012.7
20260904160400 82 287 1.0 5.0 0.00 0.08 0.02 78 1012.7
20260904160259 82 286 0.0 5.0 0.00 0.08 0.02 79 1012.6
20260904160158 82 286 0.0 5.0 0.00 0.08 0.02 78 1012.7
20260904160057 82 286 0.0 5.0 0.00 0.08 0.02 77 1012.7
20260904160002 82 286 1.0 5.0 0.00 0.08 0.02 77 1012.6
20260904155759 82 286 1.0 5.0 0.00 0.09 0.02 80 1012.6
20260904155659 82 47 0.0 5.0 0.00 0.09 0.02 78 1012.6
20260904155600 82 47 2.0 5.0 0.00 0.09 0.02 76 1012.6
20260904155500 82 42 4.0 4.0 0.00 0.09 0.02 78 1012.7
20260904155359 82 360 3.0 4.0 0.00 0.09 0.02 77 1012.7
20260904155300 82 260 0.0 3.0 0.00 0.09 0.02 77 1012.7
20260904155159 82 259 1.0 3.0 0.00 0.09 0.02 77 1012.7
20260904155059 82 265 1.0 3.0 0.00 0.09 0.02 77 1012.8
20260904155003 82 265 0.0 3.0 0.00 0.09 0.02 78 1012.8
20260904154858 82 265 1.0 3.0 0.00 0.09 0.02 78 1012.8
20260904154800 82 265 2.0 3.0 0.00 0.09 0.02 78 1012.7
20260904154700 82 265 0.0 3.0 0.00 0.09 0.02 79 1012.8
20260904154559 82 265 0.0 3.0 0.00 0.09 0.02 77 1012.8
20260904154501 82 264 0.0 3.0 0.00 0.09 0.02 77 1012.8
20260904154359 82 264 2.0 3.0 0.00 0.09 0.02 77 1012.8
20260904154259 82 281 3.0 3.0 0.00 0.09 0.02 78 1012.8
20260904153859 82 21 1.0 3.0 0.00 0.09 0.02 76 1012.8
20260904153800 82 21 1.0 3.0 0.00 0.09 0.02 76 1012.8
20260904153559 82 21 2.0 3.0 0.00 0.09 0.02 77 1012.7
20260904153503 82 21 2.0 2.0 0.00 0.09 0.02 78 1012.7
20260904153359 82 21 1.0 4.0 0.00 0.09 0.02 77 1012.8
20260904153300 82 21 1.0 4.0 0.00 0.09 0.02 77 1012.7
20260904153159 82 21 0.0 4.0 0.00 0.09 0.02 77 1012.7
20260904153100 82 21 1.0 4.0 0.00 0.09 0.02 77 1012.8
20260904153001 82 21 1.0 4.0 0.00 0.09 0.02 77 1012.8
20260904152900 82 21 1.0 4.0 0.00 0.09 0.02 78 1012.8
20260904152759 82 21 0.0 4.0 0.00 0.09 0.02 77 1012.8
20260904152700 82 21 0.0 4.0 0.00 0.09 0.02 79 1012.7
20260904152600 82 23 0.0 4.0 0.00 0.09 0.02 80 1012.8
20260904152501 82 355 2.0 4.0 0.00 0.09 0.02 80 1012.8
20260904152259 82 307 2.0 3.0 0.00 0.09 0.02 77 1012.7
20260904152159 81 305 0.0 3.0 0.00 0.09 0.02 77 1012.7
20260904152059 81 305 0.0 3.0 0.00 0.09 0.02 75 1012.8
20260904152003 81 305 2.0 3.0 0.00 0.09 0.02 76 1012.8
20260904151859 82 305 2.0 3.0 0.00 0.09 0.02 77 1012.7
20260904151759 82 305 1.0 3.0 0.00 0.09 0.02 78 1012.7
20260904151559 82 283 3.0 3.0 0.00 0.09 0.02 81 1012.7
20260904151501 82 303 0.0 3.0 0.00 0.09 0.02 78 1012.7
20260904151259 82 303 0.0 3.0 0.00 0.09 0.02 78 1012.7
20260904151200 82 303 0.0 3.0 0.00 0.09 0.02 80 1012.7
20260904151100 82 5 0.0 3.0 0.00 0.09 0.02 82 1012.7
20260904151003 82 5 0.0 3.0 0.00 0.09 0.02 80 1012.7
20260904150900 81 5 0.0 3.0 0.00 0.09 0.02 80 1012.7
20260904150759 81 329 0.0 2.0 0.00 0.09 0.02 78 1012.7
20260904150659 81 329 0.0 2.0 0.00 0.09 0.02 79 1012.7
20260904150559 81 329 0.0 2.0 0.00 0.09 0.02 81 1012.7
20260904150500 81 329 0.0 3.0 0.00 0.09 0.02 79 1012.7
20260904150359 81 329 0.0 3.0 0.00 0.09 0.02 79 1012.7
20260904150259 81 329 0.0 3.0 0.00 0.09 0.02 78 1012.7
20260904150159 81 329 0.0 3.0 0.00 0.09 0.02 77 1012.7
20260904150100 81 329 0.0 3.0 0.00 0.09 0.02 77 1012.7
20260904150000 81 329 1.0 3.0 0.00 0.10 0.02 78 1012.7
20260904145858 81 329 2.0 3.0 0.00 0.10 0.02 78 1012.7
20260904145757 81 329 0.0 3.0 0.00 0.10 0.02 78 1012.7
20260904145659 81 329 1.0 3.0 0.00 0.10 0.02 77 1012.7
20260904145459 81 329 1.0 3.0 0.00 0.10 0.02 79 1012.7
20260904145358 81 329 1.0 3.0 0.00 0.10 0.02 79 1012.7
20260904145259 81 329 0.0 3.0 0.00 0.10 0.02 78 1012.7
20260904145158 81 329 1.0 3.0 0.00 0.10 0.02 79 1012.8
20260904145058 81 329 2.0 2.0 0.00 0.10 0.02 79 1012.8
20260904144858 81 329 0.0 3.0 0.00 0.10 0.02 80 1012.8
20260904144759 81 329 0.0 3.0 0.00 0.10 0.02 81 1012.7
20260904144659 81 329 0.0 3.0 0.00 0.10 0.02 82 1012.8
20260904144259 81 331 1.0 3.0 0.00 0.10 0.02 80 1012.7
20260904144158 80 330 2.0 3.0 0.00 0.10 0.02 81 1012.6
20260904143959 80 326 0.0 2.0 0.00 0.10 0.02 80 1012.6
20260904143858 80 326 0.0 2.0 0.00 0.10 0.02 81 1012.7
20260904143758 80 326 0.0 2.0 0.00 0.10 0.02 80 1012.8
20260904143658 80 326 2.0 2.0 0.00 0.10 0.02 80 1012.7
20260904143559 80 326 0.0 0.0 0.00 0.10 0.02 80 1012.8
20260904143500 80 326 0.0 1.0 0.00 0.10 0.02 80 1012.8
20260904143359 80 326 0.0 1.0 0.00 0.10 0.02 82 1012.8
20260904143258 80 326 0.0 1.0 0.00 0.10 0.02 82 1012.8
20260904143159 80 326 0.0 1.0 0.00 0.10 0.02 81 1012.9
20260904143058 80 326 0.0 1.0 0.00 0.10 0.02 80 1012.9
20260904143000 80 326 0.0 1.0 0.00 0.10 0.02 82 1012.8
20260904142859 80 326 0.0 2.0 0.00 0.10 0.02 81 1012.8
20260904142758 80 326 0.0 2.0 0.00 0.10 0.02 80 1012.8
20260904142659 80 326 0.0 3.0 0.00 0.10 0.02 82 1012.7
20260904142557 80 326 1.0 3.0 0.00 0.10 0.02 81 1012.8
20260904142358 80 326 0.0 3.0 0.00 0.10 0.02 81 1012.8
20260904142259 80 326 0.0 3.0 0.00 0.10 0.02 81 1012.8
20260904142158 80 326 0.0 3.0 0.00 0.10 0.02 82 1012.8
20260904142059 80 326 0.0 3.0 0.00 0.10 0.02 80 1012.8
20260904141959 80 326 0.0 3.0 0.00 0.10 0.02 81 1012.8
20260904141658 79 334 0.0 4.0 0.00 0.10 0.02 84 1012.8
20260904141501 79 334 0.0 4.0 0.00 0.10 0.02 84 1012.7
20260904141358 79 334 0.0 4.0 0.00 0.10 0.02 84 1012.8
20260904141258 79 334 0.0 4.0 0.00 0.10 0.02 83 1012.8
20260904141158 79 334 0.0 4.0 0.00 0.10 0.02 84 1012.8
20260904141058 79 334 0.0 4.0 0.00 0.10 0.02 82 1012.7
20260904141000 79 334 0.0 4.0 0.00 0.10 0.02 81 1012.7
20260904140900 79 334 2.0 4.0 0.00 0.10 0.02 82 1012.6
20260904140759 79 335 2.0 4.0 0.00 0.10 0.02 83 1012.6
20260904140659 78 24 4.0 4.0 0.00 0.10 0.02 83 1012.6
20260904140559 78 265 0.0 2.0 0.00 0.10 0.02 82 1012.6
20260904140500 78 264 0.0 2.0 0.00 0.10 0.02 82 1012.6
20260904140359 78 264 0.0 2.0 0.00 0.10 0.02 82 1012.6
20260904140059 78 265 0.0 2.0 0.00 0.10 0.02 83 1012.6
20260904140000 78 264 0.0 2.0 0.00 0.10 0.02 82 1012.7
20260904135858 78 264 2.0 2.0 0.00 0.10 0.02 83 1012.6
20260904135758 78 265 0.0 2.0 0.00 0.10 0.02 84 1012.6
20260904135657 78 265 0.0 2.0 0.00 0.10 0.02 84 1012.6
20260904135559 78 265 0.0 2.0 0.00 0.10 0.02 86 1012.6
20260904135458 78 265 1.0 2.0 0.00 0.10 0.02 85 1012.6
20260904135358 78 265 1.0 2.0 0.00 0.10 0.02 84 1012.6
20260904135258 78 265 0.0 2.0 0.00 0.10 0.02 84 1012.6
20260904135158 78 265 2.0 2.0 0.00 0.10 0.02 84 1012.6
20260904135059 78 265 1.0 2.0 0.00 0.10 0.02 84 1012.7
20260904135000 78 23 0.0 0.0 0.00 0.10 0.02 84 1012.6
20260904134858 78 23 0.0 0.0 0.00 0.10 0.02 85 1012.6
20260904134758 78 23 0.0 0.0 0.00 0.10 0.02 86 1012.5
20260904134658 78 23 0.0 0.0 0.00 0.10 0.02 85 1012.5
20260904134558 78 23 0.0 0.0 0.00 0.10 0.02 86 1012.5
20260904134500 78 23 0.0 0.0 0.00 0.10 0.02 86 1012.5
20260904134358 78 23 0.0 0.0 0.00 0.10 0.02 84 1012.6
20260904134300 78 23 0.0 0.0 0.00 0.10 0.02 83 1012.6
20260904134159 78 23 0.0 2.0 0.00 0.10 0.02 84 1012.6
20260904134058 78 23 0.0 2.0 0.00 0.10 0.02 86 1012.6
20260904133959 78 23 0.0 2.0 0.00 0.10 0.02 85 1012.7
20260904133858 78 23 0.0 2.0 0.00 0.10 0.02 86 1012.6
20260904133758 78 23 0.0 2.0 0.00 0.10 0.02 85 1012.6
20260904133659 78 23 0.0 2.0 0.00 0.10 0.02 85 1012.6
20260904133558 78 23 0.0 2.0 0.00 0.10 0.02 85 1012.6
20260904133500 78 23 0.0 2.0 0.00 0.10 0.02 86 1012.6
20260904133358 77 23 0.0 2.0 0.00 0.10 0.02 86 1012.7
20260904133258 77 23 0.0 2.0 0.00 0.10 0.02 86 1012.7
20260904133058 77 23 0.0 2.0 0.00 0.10 0.02 84 1012.7
20260904132858 77 23 1.0 2.0 0.00 0.10 0.02 86 1012.6
20260904132757 77 23 0.0 0.0 0.00 0.10 0.02 87 1012.6
20260904132657 77 24 0.0 0.0 0.00 0.10 0.02 87 1012.7
20260904132557 77 24 0.0 0.0 0.00 0.10 0.02 87 1012.7
20260904132502 77 24 0.0 0.0 0.00 0.10 0.02 87 1012.7
20260904132400 77 24 0.0 5.0 0.00 0.10 0.02 86 1012.7
20260904132257 77 24 0.0 5.0 0.00 0.10 0.02 86 1012.7
20260904132158 77 24 0.0 5.0 0.00 0.10 0.02 87 1012.8
20260904132058 77 25 0.0 5.0 0.00 0.10 0.02 87 1012.7
20260904131901 77 24 0.0 5.0 0.00 0.10 0.02 88 1012.7
20260904131758 77 24 0.0 5.0 0.00 0.10 0.02 86 1012.8
20260904131659 77 24 0.0 5.0 0.00 0.10 0.02 86 1012.8
20260904131558 77 24 0.0 5.0 0.00 0.10 0.02 86 1012.8
20260904131500 77 24 0.0 5.0 0.00 0.10 0.02 86 1012.8
20260904131400 77 61 2.0 5.0 0.00 0.10 0.02 85 1012.8
20260904131259 76 151 0.0 3.0 0.00 0.10 0.02 85 1012.9
20260904131159 76 242 0.0 3.0 0.00 0.10 0.02 86 1012.8
20260904131058 76 243 0.0 3.0 0.00 0.10 0.02 87 1012.9
20260904130858 77 244 3.0 3.0 0.00 0.10 0.02 89 1012.8
20260904130700 76 166 0.0 3.0 0.00 0.10 0.02 88 1012.8
20260904130500 76 116 0.0 1.0 0.00 0.10 0.02 90 1012.8
20260904130358 76 116 0.0 1.0 0.00 0.10 0.02 90 1012.8
20260904130258 76 116 0.0 1.0 0.00 0.10 0.02 91 1012.8
20260904130158 76 116 0.0 1.0 0.00 0.10 0.02 90 1012.8
20260904130001 76 116 0.0 1.0 0.00 0.10 0.02 90 1012.9
20260904125859 76 117 0.0 1.0 0.00 0.11 0.02 90 1013.0
20260904125800 75 117 0.0 2.0 0.00 0.11 0.02 90 1013.0
20260904125700 75 117 0.0 2.0 0.00 0.11 0.02 90 1012.9
20260904125559 75 117 0.0 2.0 0.00 0.11 0.02 91 1012.9
20260904125402 75 117 0.0 2.0 0.00 0.11 0.02 91 1012.9
20260904125259 75 117 0.0 2.0 0.00 0.11 0.02 90 1012.8
20260904125158 75 117 1.0 2.0 0.00 0.11 0.02 91 1012.9
20260904125059 75 117 0.0 2.0 0.00 0.11 0.02 91 1012.8
20260904125001 75 117 0.0 2.0 0.00 0.11 0.02 91 1012.8
20260904124859 75 117 0.0 2.0 0.00 0.11 0.02 91 1012.8
20260904124700 74 236 0.0 2.0 0.00 0.11 0.02 92 1012.9
20260904124501 74 236 0.0 2.0 0.00 0.11 0.02 91 1012.8
20260904124359 74 236 0.0 2.0 0.00 0.11 0.02 91 1012.8
20260904124259 74 236 0.0 2.0 0.00 0.11 0.02 91 1012.8
20260904124159 74 236 0.0 2.0 0.00 0.11 0.02 92 1012.8
20260904124058 74 236 0.0 2.0 0.00 0.11 0.02 92 1012.8
20260904124002 74 236 1.0 2.0 0.00 0.11 0.02 93 1012.9
20260904123859 74 236 1.0 1.0 0.00 0.11 0.02 93 1012.9
20260904123800 74 236 0.0 1.0 0.00 0.11 0.02 93 1013.0
20260904123659 73 236 0.0 1.0 0.00 0.11 0.02 93 1013.0
20260904123601 73 236 1.0 1.0 0.00 0.11 0.02 93 1013.0
20260904123501 73 236 0.0 1.0 0.00 0.11 0.02 93 1013.0
20260904123359 73 236 0.0 1.0 0.00 0.11 0.02 94 1013.1
20260904123259 73 236 0.0 1.0 0.00 0.11 0.02 94 1013.1
20260904123159 73 236 0.0 1.0 0.00 0.11 0.02 94 1013.1
20260904123059 73 236 0.0 1.0 0.00 0.11 0.02 94 1013.1
20260904123001 73 236 0.0 1.0 0.00 0.11 0.02 94 1013.0
20260904122900 73 236 0.0 1.0 0.00 0.11 0.02 94 1013.1
20260904122759 73 236 0.0 1.0 0.00 0.11 0.02 94 1013.1
20260904122659 73 236 0.0 1.0 0.00 0.11 0.02 94 1013.0
20260904122559 73 236 0.0 1.0 0.00 0.11 0.02 94 1013.0
20260904122502 73 236 0.0 1.0 0.00 0.11 0.02 94 1012.9
20260904122059 73 241 0.0 3.0 0.00 0.11 0.02 95 1012.9
20260904122000 73 241 0.0 3.0 0.00 0.11 0.02 95 1012.9
20260904121859 73 241 0.0 3.0 0.00 0.11 0.02 95 1012.9
20260904121759 73 241 0.0 4.0 0.00 0.11 0.02 95 1012.9
20260904121659 72 241 0.0 4.0 0.00 0.11 0.02 95 1012.9
20260904121559 72 241 0.0 4.0 0.00 0.11 0.02 95 1012.9
20260904121501 72 241 0.0 4.0 0.00 0.11 0.02 96 1012.9
20260904121400 72 241 0.0 4.0 0.00 0.11 0.02 96 1012.9
20260904121202 72 344 1.0 4.0 0.00 0.11 0.02 96 1013.0
20260904121100 72 344 1.0 4.0 0.00 0.11 0.02 96 1012.9
20260904120900 72 344 1.0 4.0 0.00 0.11 0.02 97 1013.0
20260904120758 71 302 0.0 0.0 0.00 0.11 0.02 97 1013.0
20260904120659 71 165 0.0 0.0 0.00 0.11 0.02 97 1013.0
20260904120559 71 165 0.0 0.0 0.00 0.11 0.02 97 1013.0
20260904120501 71 165 0.0 0.0 0.00 0.11 0.02 97 1012.9
20260904120359 71 165 0.0 0.0 0.00 0.11 0.02 97 1012.9
20260904120159 71 165 0.0 0.0 0.00 0.11 0.02 97 1012.9
20260904120100 71 165 0.0 0.0 0.00 0.11 0.02 97 1012.9
20260904120002 71 165 0.0 0.0 0.00 0.11 0.02 97 1013.0
20260904115858 71 165 0.0 0.0 0.00 0.12 0.02 97 1013.0
20260904115758 71 165 0.0 0.0 0.00 0.12 0.02 97 1012.9
20260904115558 71 165 0.0 0.0 0.00 0.12 0.02 98 1012.9
20260904115502 71 165 0.0 0.0 0.00 0.12 0.02 98 1012.9
20260904115358 71 165 0.0 0.0 0.00 0.12 0.02 98 1012.8
20260904115158 71 165 0.0 0.0 0.00 0.12 0.02 98 1012.8
20260904115058 71 165 0.0 0.0 0.00 0.12 0.02 98 1012.9
20260904115000 71 165 0.0 0.0 0.00 0.12 0.02 98 1012.9
20260904114859 71 165 0.0 0.0 0.00 0.12 0.02 97 1013.0
20260904114759 71 165 0.0 0.0 0.00 0.12 0.02 97 1013.0
20260904114558 70 166 0.0 0.0 0.00 0.12 0.02 97 1013.0
20260904114459 70 178 0.0 0.0 0.00 0.12 0.02 97 1013.1
20260904114400 70 178 0.0 0.0 0.00 0.12 0.02 97 1013.1
20260904114259 70 178 0.0 0.0 0.00 0.12 0.02 97 1013.1
20260904114158 70 178 0.0 0.0 0.00 0.12 0.02 97 1013.1
20260904114058 70 178 0.0 0.0 0.00 0.12 0.02 97 1013.2
20260904113959 70 178 0.0 0.0 0.00 0.12 0.02 97 1013.2
20260904113859 70 178 0.0 0.0 0.00 0.12 0.02 97 1013.2
20260904113758 70 178 0.0 0.0 0.00 0.12 0.02 97 1013.1
20260904113559 70 178 0.0 0.0 0.00 0.12 0.02 97 1013.1
20260904113459 70 178 0.0 0.0 0.00 0.12 0.02 97 1013.1
20260904113258 69 178 0.0 0.0 0.00 0.12 0.02 97 1013.1
20260904113059 69 178 0.0 0.0 0.00 0.12 0.02 97 1013.1
20260904113000 69 178 0.0 0.0 0.00 0.12 0.02 97 1013.0
20260904112857 69 178 0.0 0.0 0.00 0.12 0.02 97 1013.0
20260904112757 69 178 0.0 0.0 0.00 0.12 0.02 97 1013.0
20260904112657 69 178 0.0 0.0 0.00 0.12 0.02 97 1013.0
20260904112558 69 178 0.0 0.0 0.00 0.12 0.02 97 1013.0
20260904112500 69 178 0.0 0.0 0.00 0.12 0.02 97 1013.0
20260904112359 69 178 0.0 0.0 0.00 0.12 0.02 97 1013.0
20260904112257 69 178 0.0 0.0 0.00 0.12 0.02 97 1013.0
20260904112058 69 178 0.0 0.0 0.00 0.12 0.02 97 1012.9
20260904112001 69 178 0.0 0.0 0.00 0.12 0.02 97 1012.9
20260904111858 69 178 0.0 0.0 0.00 0.12 0.02 97 1012.9
20260904111758 69 178 0.0 0.0 0.00 0.12 0.02 97 1012.9
20260904111658 69 178 0.0 0.0 0.00 0.12 0.02 97 1012.9
20260904111500 69 178 0.0 0.0 0.00 0.12 0.02 97 1012.9
20260904111358 69 178 0.0 0.0 0.00 0.12 0.02 97 1012.9
20260904111257 69 178 0.0 0.0 0.00 0.12 0.02 97 1012.8
20260904111159 69 178 0.0 0.0 0.00 0.12 0.02 97 1012.8
20260904111057 69 178 0.0 0.0 0.00 0.12 0.02 97 1012.8
20260904110959 69 178 0.0 0.0 0.00 0.12 0.02 97 1012.8
20260904110858 69 178 0.0 0.0 0.00 0.12 0.02 97 1012.8
20260904110759 69 178 0.0 0.0 0.00 0.12 0.02 97 1012.8
20260904110657 69 178 0.0 0.0 0.00 0.12 0.02 97 1012.8
20260904110558 69 178 0.0 0.0 0.00 0.12 0.02 97 1012.8
20260904110459 69 178 0.0 0.0 0.00 0.12 0.02 97 1012.8
20260904110257 69 178 0.0 0.0 0.00 0.12 0.02 97 1013.0
20260904110159 69 178 0.0 0.0 0.00 0.12 0.02 96 1013.0
20260904110058 69 178 0.0 0.0 0.00 0.12 0.02 96 1012.9
20260904110001 68 178 0.0 0.0 0.00 0.12 0.02 96 1013.0
20260904105858 68 178 0.0 0.0 0.00 0.13 0.02 96 1013.0
20260904105758 68 178 0.0 0.0 0.00 0.13 0.02 96 1013.0
20260904105657 68 178 0.0 0.0 0.00 0.13 0.02 96 1012.9
20260904105558 68 178 0.0 0.0 0.00 0.13 0.02 96 1012.9
20260904105459 68 178 0.0 0.0 0.00 0.13 0.02 96 1012.8
20260904105357 68 178 0.0 0.0 0.00 0.13 0.02 96 1012.8
20260904105158 68 178 0.0 0.0 0.00 0.13 0.02 96 1012.8
20260904105000 68 178 0.0 0.0 0.00 0.13 0.02 96 1012.7
20260904104858 68 178 0.0 0.0 0.00 0.13 0.02 96 1012.7
20260904104757 68 178 0.0 0.0 0.00 0.13 0.02 96 1012.7
20260904104658 68 178 0.0 0.0 0.00 0.13 0.02 96 1012.7
20260904104558 68 178 0.0 0.0 0.00 0.13 0.02 96 1012.7
20260904104459 68 178 0.0 0.0 0.00 0.13 0.02 96 1012.7
20260904104359 68 178 0.0 0.0 0.00 0.13 0.02 96 1012.7
20260904104257 68 178 0.0 0.0 0.00 0.13 0.02 96 1012.7
20260904104058 68 178 0.0 0.0 0.00 0.13 0.02 96 1012.7
20260904103959 68 178 0.0 0.0 0.00 0.13 0.02 96 1012.7
20260904103858 68 178 0.0 0.0 0.00 0.13 0.02 96 1012.6
20260904103758 68 178 0.0 0.0 0.00 0.13 0.02 96 1012.5
20260904103658 68 178 0.0 0.0 0.00 0.13 0.02 96 1012.5
20260904103500 68 178 0.0 0.0 0.00 0.13 0.02 96 1012.5
20260904103358 68 178 0.0 0.0 0.00 0.13 0.02 96 1012.4
20260904103259 68 178 0.0 0.0 0.01 0.13 0.02 96 1012.4
20260904103159 68 178 0.0 0.0 0.01 0.13 0.02 96 1012.4
20260904102858 68 178 0.0 0.0 0.01 0.13 0.02 96 1012.3
20260904102657 68 178 0.0 0.0 0.01 0.13 0.02 96 1012.2
20260904102558 68 178 0.0 0.0 0.01 0.13 0.02 96 1012.3
20260904102459 68 178 0.0 0.0 0.01 0.13 0.02 96 1012.3
20260904102358 68 178 0.0 0.0 0.01 0.13 0.02 96 1012.3
20260904102259 68 178 0.0 0.0 0.01 0.13 0.02 96 1012.3
20260904102159 68 178 0.0 0.0 0.01 0.13 0.02 96 1012.3
20260904102058 68 178 0.0 0.0 0.01 0.13 0.02 96 1012.3
20260904102000 68 178 0.0 0.0 0.01 0.13 0.02 96 1012.4
20260904101857 68 178 0.0 0.0 0.01 0.13 0.02 96 1012.4
20260904101759 68 178 0.0 0.0 0.01 0.13 0.02 96 1012.4
20260904101659 68 178 0.0 0.0 0.01 0.13 0.02 96 1012.4
20260904101558 68 178 0.0 0.0 0.01 0.13 0.02 96 1012.4
20260904101459 68 178 0.0 0.0 0.01 0.13 0.02 96 1012.4
20260904101359 69 178 0.0 0.0 0.01 0.13 0.02 96 1012.4
20260904101057 69 178 0.0 0.0 0.01 0.13 0.02 96 1012.3
20260904101000 69 178 0.0 0.0 0.01 0.13 0.02 96 1012.3
20260904100859 69 178 0.0 0.0 0.01 0.13 0.02 96 1012.3
20260904100759 69 178 0.0 0.0 0.01 0.13 0.02 96 1012.3
20260904100658 69 178 0.0 0.0 0.01 0.13 0.02 96 1012.3
20260904100558 69 178 0.0 0.0 0.01 0.13 0.02 96 1012.4
20260904100459 69 178 0.0 0.0 0.01 0.13 0.02 96 1012.4
20260904100358 69 178 0.0 0.0 0.01 0.13 0.02 96 1012.3
20260904100258 69 178 0.0 0.0 0.01 0.13 0.02 96 1012.4
20260904100058 69 178 0.0 0.0 0.01 0.13 0.02 96 1012.3
20260904095958 69 178 0.0 0.0 0.01 0.14 0.02 96 1012.3
20260904095857 69 178 0.0 0.0 0.01 0.14 0.02 96 1012.3
20260904095757 69 178 0.0 0.0 0.01 0.14 0.02 96 1012.3
20260904095658 69 178 0.0 0.0 0.01 0.14 0.02 96 1012.2
20260904095558 69 178 0.0 0.0 0.01 0.14 0.02 96 1012.2
20260904095459 69 178 0.0 0.0 0.01 0.14 0.02 96 1012.1
20260904095257 69 178 0.0 0.0 0.01 0.14 0.02 96 1012.1
20260904095158 69 178 0.0 0.0 0.01 0.14 0.02 96 1012.1
20260904095058 69 178 0.0 0.0 0.01 0.14 0.02 96 1012.1
20260904094959 69 178 0.0 0.0 0.01 0.14 0.02 96 1012.1
20260904094800 69 178 0.0 0.0 0.01 0.14 0.02 96 1012.1
20260904094658 69 178 0.0 0.0 0.01 0.14 0.02 96 1012.1
20260904094559 69 178 0.0 0.0 0.01 0.14 0.02 96 1012.1
20260904094500 69 178 0.0 0.0 0.01 0.14 0.02 96 1012.1
20260904094358 69 178 0.0 0.0 0.01 0.14 0.02 96 1012.1
20260904094258 69 178 0.0 0.0 0.01 0.14 0.02 96 1012.1
20260904094158 69 178 0.0 0.0 0.01 0.14 0.02 96 1012.1
20260904094059 69 178 0.0 0.0 0.01 0.14 0.02 96 1012.1
20260904094000 69 178 0.0 0.0 0.01 0.14 0.02 96 1012.1
20260904093858 69 178 0.0 0.0 0.01 0.14 0.02 96 1012.1
20260904093758 69 178 0.0 0.0 0.01 0.14 0.02 96 1012.1
20260904093659 69 178 0.0 0.0 0.01 0.14 0.02 96 1012.1
20260904093558 69 178 0.0 0.0 0.01 0.14 0.02 96 1012.1
20260904093459 69 178 0.0 0.0 0.01 0.14 0.02 96 1012.1
20260904093358 69 178 0.0 0.0 0.00 0.13 0.01 96 1012.1
20260904093257 69 178 0.0 0.0 0.00 0.13 0.01 96 1012.1
20260904093157 69 178 0.0 0.0 0.00 0.13 0.01 96 1012.2
20260904093058 69 178 0.0 0.0 0.00 0.13 0.01 96 1012.1
20260904092959 69 178 0.0 0.0 0.00 0.13 0.01 96 1012.1
20260904092859 69 178 0.0 0.0 0.00 0.13 0.01 96 1012.1
20260904092758 69 178 0.0 0.0 0.00 0.13 0.01 96 1012.1
20260904092657 69 178 0.0 0.0 0.00 0.13 0.01 96 1012.2
20260904092558 69 178 0.0 0.0 0.00 0.13 0.01 96 1012.1
20260904092358 69 178 0.0 0.0 0.00 0.13 0.01 96 1012.1
20260904092258 69 178 0.0 0.0 0.00 0.13 0.01 96 1012.2
20260904092159 69 178 0.0 0.0 0.00 0.13 0.01 96 1012.2
20260904092058 69 178 0.0 0.0 0.00 0.13 0.01 96 1012.2
20260904091858 69 178 0.0 0.0 0.00 0.13 0.01 96 1012.2
20260904091758 69 178 0.0 0.0 0.00 0.13 0.01 96 1012.2
20260904091657 69 178 0.0 0.0 0.00 0.13 0.01 96 1012.2
20260904091559 69 178 0.0 0.0 0.00 0.13 0.01 96 1012.1
20260904091459 69 178 0.0 0.0 0.00 0.13 0.01 96 1012.1
20260904091358 69 178 0.0 0.0 0.00 0.13 0.01 96 1012.1
20260904091258 69 178 0.0 0.0 0.00 0.13 0.01 96 1012.1
20260904091158 69 178 0.0 0.0 0.00 0.13 0.01 96 1012.1
20260904091058 69 178 0.0 0.0 0.00 0.13 0.01 96 1012.1
20260904090959 69 178 0.0 0.0 0.00 0.13 0.01 96 1012.1
20260904090857 69 178 0.0 0.0 0.00 0.13 0.01 96 1012.2
20260904090758 69 178 0.0 0.0 0.00 0.13 0.01 96 1012.1
20260904090658 69 178 0.0 0.0 0.00 0.13 0.01 96 1012.2
20260904090558 69 178 0.0 0.0 0.00 0.13 0.01 96 1012.2
20260904090500 69 178 0.0 0.0 0.00 0.13 0.01 96 1012.2
20260904090358 69 178 0.0 0.0 0.00 0.13 0.01 96 1012.2
20260904090258 69 178 0.0 0.0 0.00 0.13 0.01 96 1012.2
20260904090157 69 178 0.0 0.0 0.00 0.13 0.01 96 1012.2
20260904090058 69 178 0.0 0.0 0.00 0.13 0.01 96 1012.2
20260904090003 69 178 0.0 0.0 0.00 0.13 0.01 96 1012.3
20260904085858 69 178 0.0 0.0 0.00 0.15 0.01 96 1012.3
20260904085758 69 178 0.0 0.0 0.00 0.15 0.01 96 1012.3
20260904085657 69 178 0.0 0.0 0.00 0.15 0.01 96 1012.3
20260904085559 69 178 0.0 0.0 0.00 0.15 0.01 96 1012.3
20260904085459 69 178 0.0 0.0 0.00 0.15 0.01 96 1012.3
20260904085357 69 178 0.0 0.0 0.00 0.15 0.01 97 1012.3
20260904085258 69 178 0.0 0.0 0.00 0.15 0.01 97 1012.3
20260904085158 69 178 0.0 0.0 0.00 0.15 0.01 97 1012.3
20260904085058 69 178 0.0 0.0 0.00 0.15 0.01 97 1012.3
20260904085001 69 178 0.0 0.0 0.00 0.15 0.01 97 1012.3
20260904084857 69 178 0.0 0.0 0.00 0.15 0.01 97 1012.3
20260904084757 69 178 0.0 0.0 0.00 0.15 0.01 97 1012.4
20260904084658 69 178 0.0 0.0 0.00 0.15 0.01 97 1012.4
20260904084559 69 178 0.0 0.0 0.00 0.15 0.01 97 1012.4
20260904084459 69 178 0.0 0.0 0.00 0.15 0.01 97 1012.4
20260904084358 69 178 0.0 0.0 0.00 0.15 0.01 96 1012.5
20260904084258 69 178 0.0 0.0 0.00 0.15 0.01 96 1012.5
20260904084059 69 178 0.0 0.0 0.00 0.15 0.01 96 1012.4
20260904083959 69 178 0.0 0.0 0.00 0.15 0.01 96 1012.4
20260904083859 69 178 0.0 0.0 0.00 0.15 0.01 96 1012.5
20260904083759 69 178 0.0 0.0 0.00 0.15 0.01 96 1012.5
20260904083658 69 178 0.0 0.0 0.00 0.15 0.01 96 1012.4
20260904083558 69 178 0.0 0.0 0.00 0.15 0.01 96 1012.3
20260904083459 69 178 0.0 0.0 0.00 0.15 0.01 96 1012.4
20260904083358 69 178 0.0 0.0 0.00 0.15 0.01 96 1012.4
20260904083258 69 178 0.0 0.0 0.00 0.15 0.01 96 1012.4
20260904083158 69 178 0.0 0.0 0.00 0.15 0.01 96 1012.4
20260904083058 69 178 0.0 0.0 0.00 0.15 0.01 96 1012.4
20260904082959 69 178 0.0 0.0 0.00 0.15 0.01 96 1012.5
20260904082858 69 178 0.0 0.0 0.00 0.15 0.01 96 1012.4
20260904082658 69 178 0.0 0.0 0.00 0.15 0.01 96 1012.4
20260904082559 69 178 0.0 0.0 0.00 0.15 0.01 96 1012.4
20260904082459 69 178 0.0 0.0 0.00 0.15 0.01 96 1012.4
20260904082358 69 178 0.0 0.0 0.00 0.15 0.01 96 1012.5
20260904082258 69 178 0.0 0.0 0.00 0.15 0.01 96 1012.5
20260904082157 69 178 0.0 0.0 0.00 0.15 0.01 96 1012.5
20260904082059 69 178 0.0 0.0 0.00 0.15 0.01 96 1012.5
20260904081758 69 178 0.0 0.0 0.00 0.15 0.01 96 1012.6
20260904081658 69 178 0.0 0.0 0.00 0.15 0.01 96 1012.6
20260904081600 69 178 0.0 0.0 0.00 0.15 0.01 96 1012.6
20260904081500 69 178 0.0 0.0 0.00 0.15 0.01 96 1012.5
20260904081359 69 178 0.0 0.0 0.00 0.15 0.01 96 1012.5
20260904081258 69 178 0.0 0.0 0.00 0.15 0.01 96 1012.5
20260904081058 69 178 0.0 0.0 0.00 0.15 0.01 96 1012.5
20260904081001 69 178 0.0 0.0 0.00 0.15 0.01 96 1012.4
20260904080857 69 178 0.0 0.0 0.00 0.15 0.01 96 1012.3
20260904080758 69 178 0.0 0.0 0.00 0.15 0.01 96 1012.3
20260904080659 69 178 0.0 0.0 0.00 0.15 0.01 96 1012.3
20260904080558 69 178 0.0 0.0 0.00 0.15 0.01 96 1012.3
20260904080402 69 178 0.0 0.0 0.00 0.15 0.01 96 1012.4
20260904080158 69 178 0.0 0.0 0.00 0.15 0.01 96 1012.4
20260904080058 69 178 0.0 0.0 0.00 0.15 0.01 96 1012.4
20260904080000 69 178 0.0 0.0 0.00 0.18 0.01 96 1012.4
20260904075858 69 178 0.0 0.0 0.00 0.18 0.01 96 1012.3
20260904075757 69 178 0.0 0.0 0.00 0.18 0.01 96 1012.3
20260904075659 69 178 0.0 0.0 0.00 0.18 0.01 96 1012.3
20260904075558 69 178 0.0 0.0 0.00 0.18 0.01 96 1012.3
20260904075459 69 178 0.0 0.0 0.00 0.18 0.01 96 1012.4
20260904075359 69 178 0.0 0.0 0.00 0.18 0.01 96 1012.4
20260904075258 69 178 0.0 0.0 0.00 0.18 0.01 96 1012.4
20260904075157 69 178 0.0 0.0 0.00 0.18 0.01 96 1012.4
20260904075000 69 178 0.0 0.0 0.00 0.18 0.01 96 1012.4
20260904074858 69 178 0.0 0.0 0.00 0.18 0.01 96 1012.3
20260904074759 69 178 0.0 0.0 0.00 0.18 0.01 96 1012.3
20260904074658 69 178 0.0 0.0 0.00 0.18 0.01 96 1012.3
20260904074601 69 178 0.0 0.0 0.00 0.18 0.01 96 1012.2
20260904074459 69 178 0.0 0.0 0.00 0.18 0.01 96 1012.2
20260904074357 69 178 0.0 0.0 0.00 0.18 0.01 96 1012.2
20260904074258 69 178 0.0 0.0 0.00 0.18 0.01 96 1012.2
20260904074159 69 178 0.0 0.0 0.00 0.18 0.01 96 1012.2
20260904074058 69 178 0.0 0.0 0.00 0.18 0.01 96 1012.2
20260904073959 69 178 0.0 0.0 0.00 0.18 0.01 96 1012.1
20260904073858 69 178 0.0 0.0 0.00 0.18 0.01 96 1012.1
20260904073759 69 178 0.0 0.0 0.00 0.18 0.01 96 1012.1
20260904073558 69 178 0.0 0.0 0.00 0.18 0.01 96 1012.1
20260904073501 69 178 0.0 0.0 0.00 0.18 0.01 96 1012.1
20260904073358 69 178 0.0 0.0 0.00 0.18 0.01 96 1012.1
20260904073258 69 178 0.0 0.0 0.00 0.18 0.01 96 1012.1
20260904073158 69 178 0.0 0.0 0.00 0.18 0.01 96 1012.1
20260904073000 69 178 0.0 0.0 0.00 0.18 0.01 96 1012.1
20260904072900 69 178 0.0 0.0 0.00 0.18 0.01 96 1012.1
20260904072759 69 178 0.0 0.0 0.00 0.18 0.01 96 1012.1
20260904072659 69 178 0.0 0.0 0.00 0.18 0.01 96 1012.0
20260904072558 69 178 0.0 0.0 0.00 0.18 0.01 96 1012.0
20260904072500 69 178 0.0 0.0 0.00 0.18 0.01 96 1012.0
20260904072158 69 178 0.0 0.0 0.00 0.18 0.01 96 1011.9
20260904071959 69 178 0.0 0.0 0.00 0.18 0.01 96 1011.9
20260904071859 69 178 0.0 0.0 0.00 0.18 0.01 96 1011.9
20260904071759 69 178 0.0 0.0 0.00 0.18 0.01 96 1011.9
20260904071659 69 178 0.0 0.0 0.00 0.18 0.01 96 1011.9
20260904071558 69 178 0.0 0.0 0.00 0.18 0.01 96 1011.9
20260904071500 69 178 0.0 0.0 0.00 0.18 0.01 96 1011.8
20260904071259 69 178 0.0 0.0 0.00 0.18 0.01 96 1011.8
20260904071159 69 178 0.0 0.0 0.00 0.18 0.01 96 1011.7
20260904071059 69 178 0.0 0.0 0.00 0.18 0.01 97 1011.8
20260904070958 69 178 0.0 0.0 0.00 0.18 0.01 97 1011.7
20260904070858 69 178 0.0 0.0 0.01 0.18 0.01 97 1011.8
20260904070759 69 178 0.0 0.0 0.01 0.18 0.01 97 1011.7
20260904070658 69 178 0.0 0.0 0.01 0.18 0.01 97 1011.7
20260904070558 69 178 0.0 0.0 0.01 0.18 0.01 97 1011.5
20260904070459 69 178 0.0 0.0 0.01 0.18 0.01 97 1011.5
20260904070359 69 178 0.0 0.0 0.01 0.18 0.01 97 1011.5
20260904070257 69 178 0.0 0.0 0.01 0.18 0.01 97 1011.4
20260904070159 69 178 0.0 0.0 0.01 0.18 0.01 97 1011.4
20260904070059 69 178 0.0 0.0 0.01 0.18 0.01 97 1011.4
20260904065858 69 178 0.0 0.0 0.01 0.18 0.01 97 1011.4
20260904065758 69 178 0.0 0.0 0.01 0.18 0.01 97 1011.5
20260904065657 69 178 0.0 0.0 0.01 0.18 0.01 97 1011.5
20260904065558 69 178 0.0 0.0 0.01 0.18 0.01 97 1011.5
20260904065259 70 178 0.0 0.0 0.01 0.18 0.01 97 1011.4
20260904065158 70 178 0.0 0.0 0.01 0.18 0.01 97 1011.4
20260904065058 70 178 0.0 0.0 0.01 0.18 0.01 97 1011.3
20260904065000 70 178 0.0 0.0 0.01 0.18 0.01 97 1011.4
20260904064858 70 178 0.0 0.0 0.01 0.18 0.01 97 1011.3
20260904064758 70 178 0.0 0.0 0.01 0.18 0.01 97 1011.3
20260904064700 70 178 0.0 0.0 0.01 0.18 0.01 97 1011.2
20260904064559 70 178 0.0 0.0 0.01 0.18 0.01 97 1011.3
20260904064502 70 178 0.0 0.0 0.01 0.18 0.01 97 1011.3
20260904064358 70 178 0.0 0.0 0.01 0.18 0.01 97 1011.3
20260904064058 70 178 0.0 0.0 0.01 0.18 0.01 97 1011.3
20260904064000 70 178 0.0 0.0 0.01 0.18 0.01 97 1011.3
20260904063659 70 178 0.0 0.0 0.01 0.18 0.01 97 1011.2
20260904063559 70 178 0.0 0.0 0.01 0.18 0.01 97 1011.3
20260904063500 70 178 0.0 0.0 0.01 0.18 0.01 97 1011.3
20260904062857 70 178 0.0 0.0 0.01 0.18 0.01 97 1011.2
20260904062759 70 178 0.0 0.0 0.01 0.18 0.01 97 1011.2
20260904062658 70 178 0.0 0.0 0.01 0.18 0.01 97 1011.2
20260904062557 70 178 0.0 0.0 0.01 0.18 0.01 97 1011.1
20260904062500 70 178 0.0 0.0 0.01 0.18 0.01 97 1011.1
20260904062258 71 178 0.0 0.0 0.01 0.18 0.01 97 1011.1
20260904062158 71 178 0.0 0.0 0.01 0.18 0.01 97 1011.1
20260904061858 71 178 0.0 0.0 0.01 0.18 0.01 97 1010.9
20260904061800 71 178 0.0 0.0 0.01 0.18 0.01 97 1010.9
20260904061659 71 178 0.0 0.0 0.01 0.18 0.01 97 1010.9
20260904061558 71 178 0.0 0.0 0.01 0.18 0.01 97 1010.9
20260904061505 71 178 0.0 0.0 0.01 0.18 0.01 97 1010.9
20260904061358 71 178 0.0 0.0 0.01 0.18 0.01 97 1010.8
20260904061258 71 178 0.0 0.0 0.01 0.18 0.01 97 1010.9
20260904061159 71 178 0.0 0.0 0.01 0.18 0.01 97 1010.9
20260904061057 71 178 0.0 0.0 0.01 0.18 0.01 97 1010.9
20260904060757 71 178 0.0 0.0 0.00 0.17 0.00 97 1010.9
20260904060658 71 178 0.0 0.0 0.00 0.17 0.00 97 1010.9
20260904060559 71 178 0.0 0.0 0.00 0.17 0.00 97 1010.8
20260904060459 71 178 0.0 0.0 0.00 0.17 0.00 97 1010.8
20260904060358 71 178 0.0 0.0 0.00 0.17 0.00 97 1010.8
20260904060300 71 178 0.0 0.0 0.00 0.17 0.00 97 1010.8
20260904060158 71 178 0.0 0.0 0.00 0.17 0.00 97 1010.8
20260904060058 71 178 0.0 0.0 0.00 0.17 0.00 97 1010.8
20260904060001 71 178 0.0 0.0 0.00 0.17 0.00 97 1010.8
20260904055900 71 178 0.0 0.0 0.00 0.17 0.00 97 1010.8
20260904055759 72 178 0.0 0.0 0.00 0.17 0.00 97 1010.8
20260904055658 72 178 0.0 0.0 0.00 0.17 0.00 97 1010.9
20260904055459 72 178 0.0 0.0 0.00 0.17 0.00 97 1010.7
20260904055357 72 178 0.0 0.0 0.00 0.17 0.00 96 1010.7
20260904055300 72 178 0.0 0.0 0.00 0.17 0.00 96 1010.7
20260904055158 72 178 0.0 0.0 0.00 0.17 0.00 96 1010.7
20260904055058 72 178 0.0 0.0 0.00 0.17 0.00 96 1010.7
20260904055000 72 178 0.0 0.0 0.00 0.17 0.00 96 1010.7
20260904054858 72 178 0.0 0.0 0.00 0.17 0.00 96 1010.7
20260904054758 72 178 0.0 0.0 0.00 0.17 0.00 96 1010.7
20260904054659 72 178 0.0 0.0 0.00 0.17 0.00 96 1010.7
20260904054559 72 178 0.0 0.0 0.00 0.17 0.00 96 1010.7
20260904054359 72 178 0.0 0.0 0.00 0.17 0.00 96 1010.8
20260904054158 72 178 0.0 0.0 0.00 0.17 0.00 96 1010.9
20260904054059 72 178 0.0 0.0 0.00 0.17 0.00 96 1010.9
20260904053858 72 178 0.0 0.0 0.00 0.17 0.00 96 1010.8
20260904053758 72 178 0.0 0.0 0.00 0.17 0.00 96 1010.9
20260904053658 72 178 0.0 0.0 0.00 0.17 0.00 96 1010.9
20260904053559 72 178 0.0 0.0 0.00 0.17 0.00 96 1011.0
20260904053500 72 178 0.0 0.0 0.00 0.17 0.00 96 1011.0
20260904053358 73 178 0.0 0.0 0.00 0.17 0.00 96 1011.0
20260904053258 73 178 0.0 0.0 0.00 0.17 0.00 96 1011.0
20260904053158 73 178 0.0 0.0 0.00 0.17 0.00 95 1011.0
20260904053058 73 178 0.0 0.0 0.00 0.17 0.00 95 1011.0
20260904053001 73 178 0.0 0.0 0.00 0.17 0.00 95 1011.0
20260904052858 73 178 0.0 0.0 0.00 0.17 0.00 95 1011.0
20260904052758 73 178 0.0 0.0 0.00 0.17 0.00 95 1011.0
20260904052658 73 178 0.0 0.0 0.00 0.17 0.00 95 1011.0
20260904052500 73 178 0.0 0.0 0.00 0.17 0.00 95 1011.0
20260904052257 73 178 0.0 0.0 0.00 0.17 0.00 95 1011.0
20260904052159 73 178 0.0 0.0 0.00 0.17 0.00 95 1011.0
20260904052059 73 178 0.0 0.0 0.00 0.17 0.00 95 1011.0
20260904052000 73 178 0.0 0.0 0.00 0.17 0.00 95 1011.0
20260904051858 73 178 0.0 0.0 0.00 0.17 0.00 95 1011.0
20260904051758 73 178 0.0 0.0 0.00 0.17 0.00 95 1011.0
20260904051659 73 178 0.0 0.0 0.00 0.17 0.00 95 1011.0
20260904051558 73 178 0.0 0.0 0.00 0.17 0.00 95 1011.0
20260904051459 73 178 0.0 0.0 0.00 0.17 0.00 95 1011.1
20260904051358 73 178 0.0 0.0 0.00 0.17 0.00 95 1011.0
20260904051258 73 178 0.0 0.0 0.00 0.17 0.00 95 1010.9
20260904051158 73 178 0.0 0.0 0.00 0.17 0.00 95 1010.9
20260904051057 73 178 0.0 0.0 0.00 0.17 0.00 95 1010.9
20260904051000 73 178 0.0 0.0 0.00 0.17 0.00 95 1010.8
20260904050857 73 178 0.0 0.0 0.00 0.17 0.00 95 1010.8
20260904050758 73 178 0.0 0.0 0.00 0.17 0.00 95 1010.7
20260904050701 73 178 0.0 0.0 0.00 0.17 0.00 96 1010.7
20260904050558 73 178 0.0 0.0 0.00 0.17 0.00 96 1010.7
20260904050358 73 178 0.0 0.0 0.00 0.17 0.00 96 1010.7
20260904050158 73 178 0.0 0.0 0.00 0.17 0.00 96 1010.7
20260904050000 73 178 0.0 0.0 0.00 0.18 0.00 96 1010.6
20260904045858 73 142 0.0 0.0 0.00 0.18 0.00 96 1010.5
20260904045658 74 142 0.0 0.0 0.00 0.18 0.00 95 1010.5
20260904045558 74 142 0.0 0.0 0.00 0.18 0.00 95 1010.6
20260904045458 74 142 0.0 0.0 0.00 0.18 0.00 95 1010.7
20260904045400 74 142 0.0 0.0 0.00 0.18 0.00 95 1010.9
20260904045258 74 142 0.0 0.0 0.00 0.18 0.00 95 1011.0
20260904045100 74 142 0.0 0.0 0.00 0.18 0.00 95 1011.0
20260904045000 74 142 0.0 0.0 0.00 0.18 0.00 95 1011.0
20260904044859 74 142 0.0 0.0 0.00 0.18 0.00 95 1011.1
20260904044800 74 142 0.0 0.0 0.00 0.18 0.00 94 1011.1
20260904044658 74 142 0.0 0.0 0.00 0.18 0.00 94 1011.2
20260904044558 74 142 0.0 0.0 0.00 0.18 0.00 94 1011.2
20260904044459 74 142 0.0 0.0 0.00 0.18 0.00 94 1011.2
20260904044358 74 142 0.0 0.0 0.00 0.18 0.00 94 1011.2
20260904044300 74 142 0.0 0.0 0.00 0.18 0.00 94 1011.3
20260904044158 74 142 0.0 0.0 0.00 0.18 0.00 94 1011.3
20260904044059 74 142 0.0 0.0 0.00 0.18 0.00 94 1011.3
20260904044000 74 142 0.0 0.0 0.00 0.18 0.00 94 1011.3
20260904043858 75 142 0.0 0.0 0.00 0.18 0.00 94 1011.3
20260904043758 75 142 0.0 0.0 0.00 0.18 0.00 94 1011.3
20260904043659 75 142 0.0 0.0 0.00 0.18 0.00 94 1011.3
20260904043558 75 142 0.0 0.0 0.00 0.18 0.00 94 1011.3
20260904043500 75 142 0.0 0.0 0.00 0.18 0.00 93 1011.3
20260904043358 75 142 0.0 0.0 0.00 0.18 0.00 93 1011.3
20260904043259 75 142 0.0 0.0 0.00 0.18 0.00 93 1011.3
20260904043157 75 142 0.0 0.0 0.00 0.18 0.00 93 1011.3
20260904043003 75 142 0.0 0.0 0.00 0.18 0.00 93 1011.3
20260904042858 75 142 0.0 3.0 0.00 0.18 0.00 93 1011.3
20260904042758 75 142 0.0 3.0 0.00 0.18 0.00 93 1011.4
20260904042659 75 142 0.0 3.0 0.00 0.18 0.00 93 1011.4
20260904042559 75 142 0.0 3.0 0.00 0.18 0.00 93 1011.4
20260904042500 75 142 0.0 3.0 0.00 0.18 0.00 93 1011.4
20260904042357 75 142 0.0 3.0 0.00 0.18 0.00 92 1011.3
20260904042158 75 142 0.0 3.0 0.00 0.18 0.00 92 1011.3
20260904042058 75 142 0.0 3.0 0.00 0.18 0.00 92 1011.3
20260904042004 75 151 3.0 3.0 0.00 0.18 0.00 92 1011.4
20260904041858 75 201 0.0 3.0 0.00 0.18 0.00 92 1011.5
20260904041759 75 201 0.0 3.0 0.00 0.18 0.00 92 1011.5
20260904041700 76 201 0.0 3.0 0.00 0.18 0.00 92 1011.5
20260904041557 76 200 2.0 2.0 0.00 0.18 0.00 92 1011.6
20260904041501 76 251 0.0 2.0 0.00 0.18 0.00 92 1011.6
20260904041358 76 251 0.0 3.0 0.00 0.18 0.00 92 1011.6
20260904041258 76 251 0.0 3.0 0.00 0.18 0.00 92 1011.7
20260904041158 76 251 0.0 3.0 0.00 0.18 0.00 91 1011.7
20260904041058 76 251 0.0 3.0 0.00 0.18 0.00 91 1011.7
20260904041001 76 251 0.0 3.0 0.00 0.18 0.00 91 1011.7
20260904040901 76 251 0.0 3.0 0.00 0.18 0.00 92 1011.7
20260904040659 76 251 0.0 3.0 0.00 0.18 0.00 92 1011.6
20260904040601 76 251 0.0 3.0 0.00 0.18 0.00 92 1011.7
20260904040459 76 252 0.0 3.0 0.00 0.18 0.00 93 1011.6
20260904040358 76 252 0.0 3.0 0.00 0.18 0.00 93 1011.7
20260904040202 75 252 1.0 3.0 0.00 0.18 0.00 93 1011.6
20260904040001 76 251 0.0 0.0 0.00 0.18 0.18 95 1011.7
20260904035859 76 251 0.0 0.0 0.00 0.18 0.18 95 1011.7
20260904035758 76 251 0.0 2.0 0.00 0.18 0.18 95 1011.6
20260904035659 76 251 0.0 2.0 0.00 0.18 0.18 95 1011.6
20260904035558 76 251 0.0 2.0 0.00 0.18 0.18 95 1011.6
20260904035500 76 251 0.0 2.0 0.00 0.18 0.18 96 1011.7
20260904035359 76 251 0.0 2.0 0.00 0.18 0.18 96 1011.8
20260904035159 76 254 0.0 2.0 0.00 0.18 0.18 96 1011.8
20260904035059 76 254 0.0 2.0 0.00 0.18 0.18 97 1011.8
20260904035001 76 254 0.0 2.0 0.00 0.18 0.18 97 1011.9
20260904034901 76 254 0.0 2.0 0.00 0.18 0.18 97 1012.0
20260904034659 76 254 0.0 2.0 0.00 0.18 0.18 97 1011.9
20260904034601 76 254 0.0 3.0 0.00 0.18 0.18 97 1012.0
20260904034502 76 254 0.0 3.0 0.00 0.18 0.18 97 1011.9
20260904034400 76 254 0.0 3.0 0.00 0.18 0.18 98 1011.9
20260904034300 76 254 1.0 6.0 0.00 0.18 0.18 98 1011.9
20260904034059 76 254 0.0 6.0 0.00 0.18 0.18 97 1011.9
20260904033859 76 254 0.0 6.0 0.00 0.18 0.18 97 1012.0
20260904033759 76 254 0.0 6.0 0.00 0.18 0.18 97 1012.0
20260904033700 76 251 2.0 6.0 0.00 0.18 0.18 97 1012.0
20260904033559 76 263 0.0 6.0 0.00 0.18 0.18 97 1012.0
20260904033502 76 263 0.0 6.0 0.00 0.18 0.18 97 1012.1
20260904033359 76 263 1.0 6.0 0.00 0.18 0.18 97 1012.1
20260904033300 75 232 2.0 3.0 0.00 0.18 0.18 96 1012.1
20260904033159 75 232 0.0 3.0 0.00 0.18 0.18 96 1012.3
20260904033059 75 232 1.0 3.0 0.00 0.18 0.18 96 1012.3
20260904033001 75 232 1.0 3.0 0.00 0.18 0.18 96 1012.4
20260904032859 75 232 1.0 3.0 0.00 0.18 0.18 96 1012.3
20260904032759 75 232 1.0 3.0 0.00 0.18 0.18 96 1012.4
20260904032659 75 232 0.0 3.0 0.00 0.18 0.18 96 1012.4
20260904032559 75 232 1.0 3.0 0.00 0.18 0.18 96 1012.3
20260904032501 75 232 1.0 3.0 0.00 0.18 0.18 96 1012.3
20260904032400 75 232 0.0 3.0 0.00 0.18 0.18 96 1012.4
20260904032259 75 232 1.0 3.0 0.00 0.18 0.18 96 1012.4
20260904031800 75 229 0.0 0.0 0.00 0.18 0.18 96 1012.4
20260904031700 75 229 0.0 0.0 0.00 0.18 0.18 96 1012.4
20260904031601 75 229 0.0 0.0 0.00 0.18 0.18 96 1012.4
20260904031400 75 229 0.0 0.0 0.00 0.18 0.18 96 1012.4
20260904031200 75 229 0.0 0.0 0.00 0.18 0.18 96 1012.4
20260904030859 75 229 0.0 0.0 0.00 0.18 0.18 96 1012.5
20260904030800 75 229 0.0 0.0 0.00 0.18 0.18 96 1012.5
20260904030659 75 229 0.0 0.0 0.00 0.18 0.18 96 1012.6
20260904030559 75 229 0.0 0.0 0.00 0.18 0.18 96 1012.6
20260904030503 75 229 0.0 0.0 0.00 0.18 0.18 96 1012.7
20260904030400 75 229 0.0 0.0 0.00 0.18 0.18 96 1012.7
20260904030300 75 229 0.0 0.0 0.00 0.18 0.18 96 1012.7
20260904030004 75 229 0.0 0.0 0.00 0.18 0.18 96 1012.7
20260904025700 75 229 0.0 0.0 0.00 0.18 0.18 96 1012.6
20260904025600 75 229 0.0 0.0 0.00 0.18 0.18 96 1012.6
20260904025503 75 229 0.0 0.0 0.00 0.18 0.18 96 1012.7
20260904025359 75 229 0.0 0.0 0.00 0.18 0.18 96 1012.6
20260904025300 75 229 0.0 0.0 0.00 0.18 0.18 96 1012.7
20260904025201 75 229 0.0 0.0 0.00 0.18 0.18 96 1012.7
20260904025100 75 229 0.0 0.0 0.00 0.18 0.18 96 1012.7
20260904025005 75 229 0.0 0.0 0.00 0.18 0.18 96 1012.7
20260904024900 75 229 0.0 0.0 0.00 0.18 0.18 96 1012.8
20260904024800 75 229 0.0 0.0 0.00 0.18 0.18 96 1012.8
20260904024700 75 229 0.0 0.0 0.00 0.18 0.18 96 1012.8
20260904024601 75 229 0.0 0.0 0.00 0.18 0.18 96 1012.9
20260904024504 75 229 0.0 0.0 0.00 0.18 0.18 96 1013.0
20260904024400 75 229 0.0 0.0 0.00 0.18 0.18 96 1013.0
20260904024300 75 229 0.0 0.0 0.00 0.18 0.18 96 1013.0
20260904024201 75 229 0.0 0.0 0.00 0.18 0.18 96 1012.9
20260904024003 75 229 0.0 0.0 0.00 0.18 0.18 96 1012.7
20260904023900 75 229 0.0 0.0 0.00 0.18 0.18 96 1012.6
20260904023800 75 229 0.0 0.0 0.00 0.18 0.18 96 1012.6
20260904023601 75 229 0.0 0.0 0.00 0.18 0.18 96 1012.6
20260904023502 75 229 0.0 0.0 0.00 0.18 0.18 96 1012.6
20260904023401 75 229 0.0 0.0 0.00 0.18 0.18 96 1012.6
20260904023300 75 229 0.0 0.0 0.00 0.18 0.18 96 1012.6
20260904023202 75 229 0.0 0.0 0.00 0.18 0.18 96 1012.6
20260904023101 75 229 0.0 0.0 0.00 0.18 0.18 96 1012.6
20260904023003 76 229 0.0 0.0 0.00 0.18 0.18 96 1012.6
20260904022900 76 229 0.0 0.0 0.00 0.18 0.18 96 1012.6
20260904022800 76 229 0.0 0.0 0.00 0.18 0.18 96 1012.5
20260904022503 76 229 0.0 0.0 0.00 0.18 0.18 96 1012.5
20260904022402 76 229 0.0 0.0 0.00 0.18 0.18 96 1012.5
20260904022305 76 229 0.0 0.0 0.00 0.18 0.18 96 1012.4
20260904022159 76 229 0.0 0.0 0.01 0.18 0.18 96 1012.4
20260904022101 76 229 0.0 0.0 0.01 0.18 0.18 96 1012.4
20260904022004 76 229 0.0 0.0 0.01 0.18 0.18 96 1012.3
20260904021900 76 229 0.0 0.0 0.01 0.18 0.18 96 1012.3
20260904021802 76 229 0.0 0.0 0.01 0.18 0.18 96 1012.2
20260904021700 76 229 0.0 0.0 0.01 0.18 0.18 96 1012.2
20260904021600 76 229 0.0 0.0 0.01 0.18 0.18 96 1012.2
20260904021503 76 229 0.0 0.0 0.01 0.18 0.18 96 1012.1
20260904021300 76 229 0.0 0.0 0.01 0.18 0.18 96 1012.1
20260904021200 76 229 0.0 0.0 0.01 0.18 0.18 96 1012.2
20260904021101 76 229 0.0 0.0 0.01 0.18 0.18 97 1012.2
20260904021003 76 229 0.0 0.0 0.01 0.18 0.18 97 1012.2
20260904020900 76 229 0.0 0.0 0.01 0.18 0.18 97 1012.2
20260904020700 76 229 0.0 0.0 0.01 0.18 0.18 97 1012.3
20260904020559 76 229 0.0 0.0 0.01 0.18 0.18 97 1012.2
20260904020259 76 229 0.0 0.0 0.01 0.18 0.18 97 1012.3
20260904020159 76 229 0.0 0.0 0.01 0.18 0.18 97 1012.3
20260904020101 76 229 0.0 0.0 0.01 0.18 0.18 97 1012.3
20260904020003 76 229 0.0 0.0 0.01 0.18 0.18 97 1012.3
20260904015900 76 229 0.0 0.0 0.01 0.18 0.18 97 1012.3
20260904015759 76 229 0.0 0.0 0.01 0.18 0.18 97 1012.2
20260904015700 76 229 0.0 0.0 0.01 0.18 0.18 97 1012.2
20260904015559 76 229 0.0 0.0 0.01 0.18 0.18 97 1012.2
20260904015400 76 229 0.0 0.0 0.01 0.18 0.18 97 1012.2
20260904015201 76 229 0.0 0.0 0.01 0.18 0.18 97 1012.1
20260904015058 76 229 0.0 0.0 0.01 0.18 0.18 97 1012.1
20260904014859 76 229 0.0 0.0 0.01 0.18 0.18 97 1012.1
20260904014700 76 229 0.0 0.0 0.01 0.18 0.18 97 1012.0
20260904014559 76 229 0.0 0.0 0.01 0.18 0.18 97 1012.0
20260904014500 76 229 0.0 0.0 0.01 0.18 0.18 97 1011.9
20260904014400 76 229 0.0 0.0 0.01 0.18 0.18 97 1011.9
20260904014259 76 229 0.0 0.0 0.01 0.18 0.18 97 1011.9
20260904014200 76 229 0.0 0.0 0.01 0.18 0.18 97 1011.9
20260904014059 76 229 0.0 0.0 0.01 0.18 0.18 97 1012.0
20260904014000 76 229 0.0 0.0 0.01 0.18 0.18 97 1012.0
20260904013902 76 229 0.0 0.0 0.01 0.18 0.18 97 1012.0
20260904013759 76 229 0.0 0.0 0.01 0.18 0.18 97 1012.0
20260904013658 76 229 0.0 0.0 0.01 0.18 0.18 97 1012.0
20260904013559 76 229 0.0 0.0 0.01 0.18 0.18 97 1012.1
20260904013500 76 229 0.0 0.0 0.01 0.18 0.18 97 1012.1
20260904013359 76 229 0.0 0.0 0.01 0.18 0.18 97 1012.1
20260904013300 76 229 0.0 0.0 0.01 0.18 0.18 97 1012.0
20260904013201 76 229 0.0 0.0 0.01 0.18 0.18 97 1012.0
20260904013100 76 229 0.0 0.0 0.01 0.18 0.18 97 1012.0
20260904013002 76 229 0.0 0.0 0.01 0.18 0.18 97 1012.0
20260904012859 76 229 0.0 0.0 0.01 0.18 0.18 97 1012.1
20260904012700 76 229 0.0 0.0 0.01 0.18 0.18 97 1012.0
20260904012501 76 229 0.0 0.0 0.01 0.18 0.18 97 1012.1
20260904012358 76 229 0.0 0.0 0.01 0.18 0.18 97 1012.1
20260904012301 76 229 0.0 0.0 0.00 0.17 0.17 97 1012.1
20260904012058 76 229 0.0 0.0 0.00 0.17 0.17 97 1012.0
20260904012000 76 229 0.0 0.0 0.00 0.17 0.17 97 1012.1
20260904011859 76 229 0.0 0.0 0.00 0.17 0.17 97 1012.0
20260904011700 76 229 0.0 0.0 0.00 0.17 0.17 97 1011.9
20260904011559 76 229 0.0 0.0 0.00 0.17 0.17 97 1011.9
20260904011503 76 229 0.0 0.0 0.00 0.17 0.17 97 1011.9
20260904011401 76 229 0.0 0.0 0.00 0.17 0.17 97 1011.9
20260904011300 76 229 0.0 0.0 0.00 0.17 0.17 97 1011.9
20260904011200 76 229 0.0 0.0 0.00 0.17 0.17 97 1011.9
20260904011059 76 229 0.0 0.0 0.00 0.17 0.17 97 1011.9
20260904010900 76 229 0.0 0.0 0.00 0.17 0.17 97 1011.9
20260904010658 76 229 0.0 0.0 0.00 0.17 0.17 97 1011.8
20260904010559 76 229 0.0 0.0 0.00 0.17 0.17 97 1011.8
20260904010503 77 229 0.0 0.0 0.00 0.17 0.17 97 1011.8
20260904010359 77 229 0.0 0.0 0.00 0.17 0.17 97 1011.8
20260904010259 77 229 0.0 0.0 0.00 0.17 0.17 97 1011.8
20260904010200 77 229 0.0 0.0 0.00 0.17 0.17 97 1011.9
20260904010058 77 229 0.0 0.0 0.00 0.17 0.17 97 1011.9
20260904010004 77 229 0.0 0.0 0.00 0.18 0.17 97 1011.9
20260904005859 77 229 0.0 0.0 0.00 0.18 0.17 97 1011.9
20260904005700 77 229 0.0 0.0 0.00 0.18 0.17 97 1011.9
20260904005602 77 229 0.0 0.0 0.00 0.18 0.17 97 1012.0
20260904005259 77 229 0.0 0.0 0.00 0.18 0.17 97 1012.1
20260904005159 77 229 0.0 0.0 0.00 0.18 0.17 97 1012.1
20260904004858 77 229 0.0 0.0 0.00 0.18 0.17 97 1012.1
20260904004801 77 229 0.0 0.0 0.00 0.18 0.17 97 1012.1
20260904004659 77 229 0.0 0.0 0.00 0.18 0.17 97 1012.2
20260904004503 77 229 0.0 0.0 0.00 0.18 0.17 97 1012.2
20260904004359 77 229 0.0 0.0 0.00 0.18 0.17 97 1012.2
20260904004159 77 229 0.0 0.0 0.00 0.18 0.17 97 1012.2
20260904004059 77 229 0.0 0.0 0.00 0.18 0.17 97 1012.2
20260904004002 77 229 0.0 0.0 0.00 0.18 0.17 97 1012.2
20260904003759 77 229 0.0 0.0 0.00 0.18 0.17 97 1012.2
20260904003559 77 229 0.0 0.0 0.00 0.18 0.17 96 1012.2
20260904003502 77 229 0.0 0.0 0.00 0.18 0.17 96 1012.2
20260904003258 77 229 0.0 0.0 0.00 0.18 0.17 96 1012.3
20260904003200 77 229 0.0 0.0 0.00 0.18 0.17 96 1012.3
20260904003059 77 229 0.0 0.0 0.00 0.18 0.17 96 1012.3
20260904003002 77 229 0.0 0.0 0.00 0.18 0.17 96 1012.2
20260904002902 77 229 0.0 0.0 0.00 0.18 0.17 96 1012.2
20260904002758 77 229 0.0 0.0 0.00 0.18 0.17 96 1012.2
20260904002600 77 229 0.0 0.0 0.00 0.18 0.17 96 1012.1
20260904002459 77 229 0.0 0.0 0.00 0.18 0.17 96 1012.2
20260904002400 77 229 0.0 0.0 0.00 0.18 0.17 96 1012.0
20260904002259 77 229 0.0 0.0 0.00 0.18 0.17 96 1012.0
20260904002000 77 229 0.0 0.0 0.00 0.18 0.17 96 1012.0
20260904001859 77 229 0.0 0.0 0.00 0.18 0.17 96 1012.1
20260904001800 77 229 0.0 0.0 0.00 0.18 0.17 96 1012.1
20260904001659 77 229 0.0 0.0 0.00 0.18 0.17 96 1012.1
20260904001600 77 229 0.0 0.0 0.00 0.18 0.17 96 1012.1
20260904001500 77 229 0.0 0.0 0.00 0.18 0.17 96 1012.1
20260904001359 77 229 0.0 0.0 0.01 0.18 0.17 96 1012.1
20260904001259 77 229 0.0 0.0 0.01 0.18 0.17 96 1012.1
20260904001100 77 229 0.0 0.0 0.01 0.18 0.17 96 1012.2
20260904000900 77 229 0.0 0.0 0.01 0.18 0.17 95 1012.3
20260904000800 77 229 0.0 0.0 0.01 0.18 0.17 95 1012.3
20260904000659 77 229 0.0 0.0 0.01 0.18 0.17 95 1012.3
20260904000601 77 229 0.0 0.0 0.01 0.18 0.17 95 1012.3
20260904000500 77 229 0.0 0.0 0.01 0.18 0.17 95 1012.3
20260904000359 77 229 0.0 0.0 0.01 0.18 0.17 95 1012.3
20260904000303 77 229 0.0 0.0 0.01 0.18 0.17 95 1012.3
20260904000159 77 229 0.0 0.0 0.01 0.18 0.17 95 1012.3
20260904000004 77 229 0.0 0.0 0.01 0.18 0.17 95 1012.2
20260903235900 77 229 0.0 0.0 0.01 0.19 0.17 95 1012.2
20260903235800 77 229 0.0 0.0 0.01 0.19 0.17 95 1012.2
20260903235702 77 229 0.0 0.0 0.01 0.19 0.17 95 1012.2
20260903235600 77 229 0.0 0.0 0.01 0.19 0.17 95 1012.1
20260903235503 78 229 0.0 0.0 0.01 0.19 0.17 95 1012.2
20260903235259 78 229 0.0 0.0 0.01 0.19 0.17 94 1012.2
20260903235200 78 229 0.0 0.0 0.01 0.19 0.17 94 1012.1
20260903235059 78 229 0.0 0.0 0.01 0.19 0.17 94 1012.1
20260903235002 78 229 0.0 0.0 0.01 0.19 0.17 94 1012.0
20260903234700 78 229 0.0 0.0 0.01 0.19 0.17 94 1011.9
20260903234503 78 229 0.0 0.0 0.01 0.19 0.17 94 1011.9
20260903234359 78 229 0.0 0.0 0.01 0.19 0.17 94 1011.9
20260903234300 78 229 0.0 0.0 0.01 0.19 0.17 94 1011.9
20260903234201 78 229 0.0 0.0 0.01 0.19 0.17 94 1011.9
20260903234002 78 229 0.0 0.0 0.01 0.19 0.17 94 1011.8
20260903233901 78 229 0.0 0.0 0.01 0.19 0.17 94 1011.8
20260903233801 78 229 0.0 0.0 0.01 0.19 0.17 94 1011.9
20260903233700 78 229 0.0 0.0 0.01 0.19 0.17 94 1011.9
20260903233502 78 229 0.0 0.0 0.01 0.19 0.17 93 1011.8
20260903233400 78 229 0.0 0.0 0.01 0.19 0.17 93 1011.8
20260903233301 78 229 0.0 0.0 0.01 0.19 0.17 93 1011.7
20260903233200 78 229 0.0 0.0 0.01 0.19 0.17 93 1011.7
20260903233101 78 229 0.0 0.0 0.01 0.19 0.17 93 1011.6
20260903233002 78 229 0.0 0.0 0.01 0.19 0.17 93 1011.6
20260903232900 78 229 0.0 0.0 0.01 0.19 0.17 93 1011.6
20260903232800 79 229 0.0 0.0 0.01 0.19 0.17 93 1011.7
20260903232701 79 229 0.0 0.0 0.01 0.19 0.17 93 1011.7
20260903232601 79 229 0.0 0.0 0.01 0.19 0.17 93 1011.8
20260903232400 79 229 0.0 0.0 0.01 0.19 0.17 93 1011.7
20260903232301 79 229 0.0 0.0 0.01 0.19 0.17 93 1011.7
20260903232200 79 229 0.0 0.0 0.01 0.19 0.17 93 1011.7
20260903232100 79 229 0.0 0.0 0.01 0.19 0.17 93 1011.7
20260903232003 79 229 0.0 0.0 0.01 0.19 0.17 93 1011.8
20260903231900 79 229 0.0 0.0 0.01 0.19 0.17 92 1011.8
20260903231800 79 229 0.0 0.0 0.01 0.19 0.17 92 1011.9
20260903231701 79 229 0.0 0.0 0.01 0.19 0.17 92 1011.8
20260903231601 79 229 0.0 0.0 0.01 0.19 0.17 92 1011.8
20260903231503 79 229 0.0 0.0 0.01 0.19 0.17 92 1011.9
20260903231259 79 229 0.0 0.0 0.00 0.18 0.16 91 1012.0
20260903231059 79 229 0.0 0.0 0.00 0.18 0.16 91 1012.1
20260903231002 79 229 0.0 0.0 0.00 0.18 0.16 91 1012.1
20260903230901 79 229 0.0 0.0 0.00 0.18 0.16 91 1012.1
20260903230800 79 229 0.0 0.0 0.00 0.18 0.16 91 1012.0
20260903230701 79 229 0.0 0.0 0.00 0.18 0.16 91 1012.0
20260903230600 80 229 0.0 0.0 0.00 0.18 0.16 91 1012.1
20260903230503 80 229 0.0 0.0 0.00 0.18 0.16 91 1012.0
20260903230400 80 229 0.0 0.0 0.00 0.18 0.16 92 1012.0
20260903230300 80 229 0.0 0.0 0.00 0.18 0.16 92 1012.0
20260903230100 80 229 0.0 0.0 0.00 0.18 0.16 91 1011.9
20260903230002 80 229 0.0 0.0 0.00 0.18 0.16 91 1011.9
20260903225859 80 229 0.0 0.0 0.00 0.18 0.16 90 1011.9
20260903225759 80 229 0.0 0.0 0.00 0.18 0.16 90 1011.9
20260903225659 80 229 0.0 0.0 0.00 0.18 0.16 90 1011.9
20260903225559 80 229 0.0 0.0 0.00 0.18 0.16 90 1011.9
20260903225504 80 229 0.0 0.0 0.00 0.18 0.16 90 1011.8
20260903225359 80 229 0.0 0.0 0.00 0.18 0.16 89 1011.8
20260903225259 80 229 0.0 0.0 0.00 0.18 0.16 89 1011.7
20260903225159 80 229 0.0 0.0 0.00 0.18 0.16 89 1011.7
20260903225059 80 229 0.0 0.0 0.00 0.18 0.16 89 1011.7
20260903224859 80 229 0.0 0.0 0.00 0.18 0.16 89 1011.7
20260903224759 81 229 0.0 0.0 0.00 0.18 0.16 89 1011.7
20260903224359 81 229 0.0 1.0 0.00 0.18 0.16 89 1011.8
20260903224259 81 229 0.0 1.0 0.00 0.18 0.16 89 1011.7
20260903224159 81 229 0.0 1.0 0.00 0.18 0.16 89 1011.8
20260903224100 81 229 0.0 1.0 0.00 0.18 0.16 88 1011.7
20260903224000 81 229 0.0 1.0 0.00 0.18 0.16 89 1011.7
20260903223900 81 229 0.0 1.0 0.00 0.18 0.16 89 1011.7
20260903223759 81 229 0.0 1.0 0.00 0.18 0.16 89 1011.8
20260903223558 81 229 0.0 0.0 0.00 0.18 0.16 89 1011.9
20260903223500 81 229 0.0 0.0 0.00 0.18 0.16 89 1011.8
20260903223400 81 229 0.0 0.0 0.00 0.18 0.16 89 1011.9
20260903223300 81 229 0.0 0.0 0.00 0.18 0.16 89 1011.9
20260903223159 81 229 0.0 0.0 0.00 0.18 0.16 89 1011.9
20260903223059 81 229 0.0 0.0 0.00 0.18 0.16 89 1011.9
20260903223000 81 229 0.0 0.0 0.00 0.18 0.16 89 1011.9
20260903222759 81 229 0.0 0.0 0.00 0.18 0.16 88 1011.7
20260903222659 81 229 0.0 0.0 0.00 0.18 0.16 88 1011.6
20260903222503 81 229 0.0 0.0 0.00 0.18 0.16 88 1011.5
20260903222359 81 229 0.0 0.0 0.00 0.18 0.16 88 1011.4
20260903222200 81 229 0.0 0.0 0.00 0.18 0.16 88 1011.4
20260903222000 81 229 0.0 0.0 0.00 0.18 0.16 88 1011.4
20260903221858 81 229 0.0 0.0 0.00 0.18 0.16 88 1011.4
20260903221759 81 229 0.0 0.0 0.00 0.18 0.16 88 1011.4
20260903221558 81 229 0.0 0.0 0.00 0.18 0.16 88 1011.3
20260903221501 81 229 0.0 0.0 0.00 0.18 0.16 88 1011.3
20260903221359 81 229 0.0 0.0 0.00 0.18 0.16 88 1011.4
20260903221158 82 229 0.0 0.0 0.00 0.18 0.16 88 1011.5
20260903221058 82 229 0.0 0.0 0.00 0.18 0.16 87 1011.5
20260903221000 82 229 0.0 0.0 0.00 0.18 0.16 87 1011.4
20260903220759 82 229 0.0 0.0 0.00 0.18 0.16 87 1011.3
20260903220559 82 229 0.0 1.0 0.00 0.18 0.16 87 1011.3
20260903220502 82 229 0.0 1.0 0.00 0.18 0.16 87 1011.4
20260903220359 82 229 0.0 1.0 0.00 0.18 0.16 87 1011.4
20260903220259 82 229 0.0 1.0 0.00 0.18 0.16 87 1011.5
20260903220158 82 229 0.0 1.0 0.00 0.18 0.16 87 1011.4
20260903220100 82 229 0.0 2.0 0.00 0.18 0.16 87 1011.5
20260903220007 82 229 0.0 2.0 0.00 0.18 0.16 86 1011.5
20260903215859 82 229 0.0 2.0 0.00 0.20 0.16 86 1011.5
20260903215759 82 229 0.0 2.0 0.00 0.20 0.16 86 1011.5
20260903215559 82 229 0.0 2.0 0.00 0.20 0.16 86 1011.5
20260903215500 82 229 0.0 2.0 0.00 0.20 0.16 86 1011.5
20260903215359 82 229 0.0 2.0 0.00 0.20 0.16 86 1011.5
20260903215200 82 229 1.0 2.0 0.00 0.20 0.16 86 1011.4
20260903215100 82 229 0.0 2.0 0.00 0.20 0.16 87 1011.4
20260903214758 83 229 0.0 2.0 0.00 0.20 0.16 86 1011.3
20260903214659 83 229 0.0 2.0 0.00 0.20 0.16 85 1011.3
20260903214600 83 229 0.0 2.0 0.00 0.20 0.16 85 1011.3
20260903214359 83 229 1.0 2.0 0.00 0.20 0.16 85 1011.3
20260903214259 83 229 1.0 2.0 0.00 0.20 0.16 85 1011.3
20260903214200 83 229 0.0 2.0 0.00 0.20 0.16 85 1011.2
20260903214101 83 229 0.0 2.0 0.00 0.20 0.16 85 1011.3
20260903214001 83 229 0.0 2.0 0.00 0.20 0.16 84 1011.2
20260903213900 83 229 0.0 2.0 0.00 0.20 0.16 84 1011.2
20260903213759 83 229 0.0 2.0 0.00 0.20 0.16 83 1011.2
20260903213700 84 229 0.0 2.0 0.00 0.20 0.16 83 1011.3
20260903213559 84 229 0.0 2.0 0.00 0.20 0.16 82 1011.3
20260903213502 84 229 0.0 2.0 0.00 0.20 0.16 83 1011.3
20260903213359 84 229 1.0 2.0 0.00 0.20 0.16 83 1011.3
20260903213300 84 229 0.0 2.0 0.00 0.20 0.16 83 1011.4
20260903213159 84 229 0.0 2.0 0.00 0.20 0.16 82 1011.4
20260903213059 84 229 1.0 2.0 0.00 0.20 0.16 82 1011.4
20260903213003 84 229 0.0 2.0 0.00 0.20 0.16 82 1011.4
20260903212859 84 229 0.0 2.0 0.01 0.20 0.16 82 1011.3
20260903212759 84 229 1.0 2.0 0.01 0.20 0.16 82 1011.3
20260903212659 84 232 1.0 2.0 0.01 0.20 0.16 82 1011.3
20260903212603 84 233 0.0 2.0 0.01 0.20 0.16 84 1011.3
20260903212400 84 233 0.0 2.0 0.01 0.20 0.16 84 1011.2
20260903212200 84 233 0.0 2.0 0.01 0.20 0.16 84 1011.2
20260903212101 84 233 0.0 2.0 0.01 0.20 0.16 83 1011.2
20260903211859 84 233 0.0 2.0 0.01 0.20 0.16 83 1011.2
20260903211759 84 233 0.0 2.0 0.01 0.20 0.16 84 1011.1
20260903211700 84 233 0.0 3.0 0.01 0.20 0.16 83 1011.1
20260903211600 84 240 0.0 3.0 0.01 0.20 0.16 83 1011.1
20260903211501 84 240 0.0 3.0 0.01 0.20 0.16 83 1011.1
20260903211400 84 240 0.0 3.0 0.01 0.20 0.16 83 1011.1
20260903211259 84 240 0.0 3.0 0.01 0.20 0.16 82 1011.1
20260903211200 84 240 0.0 3.0 0.01 0.20 0.16 82 1011.1
20260903211058 84 240 0.0 3.0 0.01 0.20 0.16 82 1011.2
20260903210859 84 240 0.0 3.0 0.01 0.20 0.16 82 1011.2
20260903210759 84 240 2.0 3.0 0.01 0.20 0.16 81 1011.1
20260903210558 84 214 0.0 2.0 0.01 0.20 0.16 84 1011.0
20260903210502 84 213 1.0 2.0 0.01 0.20 0.16 85 1011.0
20260903210359 84 213 0.0 2.0 0.01 0.20 0.16 84 1011.1
20260903210200 84 213 1.0 2.0 0.01 0.20 0.16 83 1011.1
20260903210003 84 213 0.0 2.0 0.01 0.21 0.16 84 1011.1
20260903205859 84 213 1.0 2.0 0.01 0.21 0.16 84 1011.1
20260903205759 84 213 1.0 2.0 0.01 0.21 0.16 84 1011.1
20260903205700 84 213 0.0 3.0 0.01 0.21 0.16 83 1011.1
20260903205559 84 213 0.0 3.0 0.01 0.21 0.16 83 1011.2
20260903205501 84 213 1.0 3.0 0.01 0.21 0.16 83 1011.1
20260903205359 84 213 0.0 3.0 0.01 0.21 0.16 84 1011.1
20260903205259 84 213 0.0 3.0 0.01 0.21 0.16 83 1011.1
20260903205158 84 213 0.0 3.0 0.01 0.21 0.16 83 1011.1
20260903205059 84 213 0.0 3.0 0.01 0.21 0.16 84 1011.1
20260903205003 84 213 0.0 3.0 0.01 0.21 0.16 83 1011.1
20260903204900 84 213 1.0 3.0 0.01 0.21 0.16 83 1011.2
20260903204800 84 213 1.0 3.0 0.01 0.21 0.16 82 1011.2
20260903204700 84 213 2.0 3.0 0.01 0.21 0.16 83 1011.2
20260903204559 84 213 1.0 3.0 0.01 0.21 0.16 83 1011.3
20260903204501 84 213 0.0 3.0 0.01 0.21 0.16 84 1011.3
20260903204400 84 213 0.0 3.0 0.01 0.21 0.16 84 1011.2
20260903204259 84 213 0.0 3.0 0.01 0.21 0.16 83 1011.3
20260903204157 84 213 1.0 3.0 0.01 0.21 0.16 81 1011.2
20260903204059 84 213 0.0 3.0 0.01 0.21 0.16 81 1011.3
20260903204003 84 212 1.0 3.0 0.01 0.21 0.16 82 1011.3
20260903203859 84 212 1.0 3.0 0.01 0.21 0.16 81 1011.3
20260903203801 84 212 2.0 3.0 0.01 0.21 0.16 81 1011.3
20260903203700 84 212 1.0 2.0 0.01 0.21 0.16 81 1011.2
20260903203559 84 212 1.0 3.0 0.01 0.21 0.16 80 1011.2
20260903203500 84 196 1.0 3.0 0.01 0.21 0.16 81 1011.2
20260903203359 84 196 1.0 3.0 0.01 0.21 0.16 81 1011.2
20260903203259 84 196 0.0 3.0 0.01 0.21 0.16 80 1011.3
20260903203059 85 196 1.0 3.0 0.01 0.21 0.16 80 1011.2
20260903202859 85 196 0.0 3.0 0.01 0.20 0.15 80 1011.2
20260903202802 85 196 1.0 3.0 0.01 0.20 0.15 79 1011.2
20260903202702 85 196 3.0 3.0 0.01 0.20 0.15 80 1011.2
20260903202558 85 196 0.0 3.0 0.01 0.20 0.15 80 1011.2
20260903202503 85 196 1.0 3.0 0.01 0.20 0.15 80 1011.2
20260903202359 85 194 3.0 4.0 0.01 0.20 0.15 81 1011.2
20260903202259 84 170 0.0 3.0 0.01 0.20 0.15 81 1011.2
20260903202159 84 157 0.0 3.0 0.01 0.20 0.15 81 1011.2
20260903202059 84 157 0.0 3.0 0.01 0.20 0.15 82 1011.2
20260903202000 84 157 2.0 3.0 0.01 0.20 0.15 82 1011.2
20260903201859 84 154 1.0 3.0 0.01 0.20 0.15 82 1011.2
20260903201759 84 154 2.0 3.0 0.01 0.20 0.15 82 1011.2
20260903201659 84 154 0.0 2.0 0.01 0.20 0.15 82 1011.3
20260903201502 84 154 0.0 2.0 0.01 0.20 0.15 81 1011.3
20260903201359 84 154 1.0 2.0 0.01 0.20 0.15 81 1011.3
20260903201258 84 158 1.0 2.0 0.01 0.20 0.15 83 1011.3
20260903201059 84 193 0.0 2.0 0.01 0.20 0.15 82 1011.3
20260903201001 84 193 0.0 2.0 0.01 0.20 0.15 82 1011.3
20260903200900 84 193 1.0 2.0 0.01 0.20 0.15 81 1011.3
20260903200800 84 192 0.0 2.0 0.01 0.20 0.15 81 1011.3
20260903200659 84 192 1.0 3.0 0.01 0.20 0.15 82 1011.3
20260903200559 84 192 0.0 3.0 0.01 0.20 0.15 82 1011.3
20260903200500 84 192 0.0 3.0 0.01 0.20 0.15 82 1011.3
20260903200258 84 192 0.0 3.0 0.01 0.20 0.15 83 1011.4
20260903200200 84 192 1.0 4.0 0.01 0.20 0.15 83 1011.4
20260903200000 84 192 0.0 4.0 0.01 0.22 0.15 82 1011.4
20260903195900 84 192 1.0 4.0 0.01 0.22 0.15 81 1011.4
20260903195759 84 194 1.0 4.0 0.01 0.22 0.15 81 1011.4
20260903195659 84 180 2.0 4.0 0.01 0.22 0.15 81 1011.4
20260903195559 84 151 1.0 4.0 0.01 0.22 0.15 80 1011.4
20260903195501 84 163 1.0 4.0 0.01 0.22 0.15 80 1011.4
20260903195400 84 175 1.0 4.0 0.01 0.22 0.15 82 1011.4
20260903195300 84 193 3.0 5.0 0.01 0.22 0.15 82 1011.5
20260903195200 84 80 1.0 4.0 0.01 0.22 0.15 82 1011.5
20260903195100 84 76 0.0 4.0 0.01 0.22 0.15 81 1011.5
20260903195002 84 76 0.0 4.0 0.01 0.22 0.15 81 1011.5
20260903194900 84 283 1.0 3.0 0.01 0.22 0.15 83 1011.5
20260903194759 84 270 3.0 3.0 0.01 0.22 0.15 83 1011.5
20260903194659 84 153 1.0 3.0 0.01 0.22 0.15 84 1011.5
20260903194600 84 153 0.0 5.0 0.01 0.22 0.15 84 1011.6
20260903194501 84 153 0.0 5.0 0.01 0.22 0.15 84 1011.6
20260903194400 84 153 0.0 5.0 0.01 0.22 0.15 83 1011.6
20260903194259 84 152 0.0 5.0 0.01 0.22 0.15 82 1011.6
20260903194200 83 152 1.0 5.0 0.01 0.22 0.15 83 1011.6
20260903194058 83 153 2.0 5.0 0.01 0.22 0.15 82 1011.6
20260903194003 84 190 0.0 5.0 0.01 0.22 0.15 84 1011.7
20260903193859 84 190 1.0 5.0 0.01 0.22 0.15 83 1011.6
20260903193758 84 190 1.0 5.0 0.01 0.22 0.15 82 1011.6
20260903193659 84 207 1.0 4.0 0.01 0.22 0.15 81 1011.6
20260903193600 84 172 1.0 4.0 0.01 0.22 0.15 83 1011.6
20260903193502 84 172 1.0 4.0 0.01 0.22 0.15 83 1011.6
20260903193358 84 172 1.0 4.0 0.01 0.22 0.15 83 1011.6
20260903193259 84 171 2.0 4.0 0.01 0.22 0.15 81 1011.6
20260903193159 84 240 1.0 3.0 0.01 0.22 0.15 82 1011.6
20260903193100 84 240 0.0 3.0 0.01 0.22 0.15 81 1011.6
20260903193001 84 241 0.0 3.0 0.00 0.21 0.14 82 1011.7
20260903192859 84 241 0.0 3.0 0.00 0.21 0.14 81 1011.7
20260903192758 84 241 0.0 3.0 0.00 0.21 0.14 81 1011.7
20260903192659 84 241 0.0 3.0 0.00 0.21 0.14 81 1011.7
20260903192600 84 241 0.0 3.0 0.00 0.21 0.14 82 1011.7
20260903192502 84 241 0.0 3.0 0.00 0.21 0.14 83 1011.7
20260903192401 84 241 1.0 3.0 0.00 0.21 0.14 82 1011.7
20260903192300 84 241 0.0 4.0 0.00 0.21 0.14 81 1011.7
20260903192158 84 245 0.0 4.0 0.00 0.21 0.14 82 1011.8
20260903192101 83 245 1.0 4.0 0.00 0.21 0.14 82 1011.7
20260903192000 83 245 1.0 4.0 0.00 0.21 0.14 82 1011.8
20260903191900 83 245 0.0 4.0 0.00 0.21 0.14 82 1011.8
20260903191759 83 245 2.0 4.0 0.00 0.21 0.14 82 1011.8
20260903191700 83 245 0.0 4.0 0.00 0.21 0.14 83 1011.9
20260903191503 83 245 1.0 4.0 0.00 0.21 0.14 81 1011.9
20260903191400 83 245 0.0 4.0 0.00 0.21 0.14 84 1011.9
20260903191300 83 176 2.0 3.0 0.00 0.21 0.14 83 1011.9
20260903191159 83 176 0.0 3.0 0.00 0.21 0.14 84 1012.0
20260903190859 84 176 0.0 3.0 0.00 0.21 0.14 82 1012.1
20260903190759 84 175 1.0 3.0 0.00 0.21 0.14 83 1012.1
20260903190659 83 213 1.0 2.0 0.00 0.21 0.14 82 1012.1
20260903190559 83 213 0.0 2.0 0.00 0.21 0.14 81 1012.0
20260903190359 83 213 0.0 2.0 0.00 0.21 0.14 83 1012.1
20260903190300 83 213 0.0 2.0 0.00 0.21 0.14 82 1012.2
20260903190159 83 213 0.0 2.0 0.00 0.21 0.14 81 1012.2
20260903190059 83 213 0.0 2.0 0.01 0.21 0.14 81 1012.2
20260903190000 83 213 1.0 2.0 0.01 0.25 0.14 81 1012.2
20260903185759 83 212 1.0 3.0 0.01 0.25 0.14 82 1012.3
20260903185700 83 212 0.0 3.0 0.01 0.25 0.14 84 1012.3
20260903185600 83 212 0.0 3.0 0.01 0.25 0.14 84 1012.3
20260903185501 83 212 0.0 3.0 0.01 0.25 0.14 84 1012.4
20260903185359 83 212 1.0 3.0 0.01 0.25 0.14 83 1012.4
20260903185259 83 212 0.0 3.0 0.01 0.25 0.14 82 1012.4
20260903185159 83 212 1.0 3.0 0.01 0.25 0.14 83 1012.4
20260903185101 83 212 1.0 3.0 0.01 0.25 0.14 83 1012.4
20260903185000 83 212 0.0 4.0 0.01 0.25 0.14 83 1012.5
20260903184800 83 212 0.0 4.0 0.01 0.25 0.14 83 1012.5
20260903184700 83 212 1.0 4.0 0.01 0.25 0.14 84 1012.5
20260903184600 83 232 0.0 4.0 0.01 0.25 0.14 83 1012.6
20260903184501 83 232 1.0 4.0 0.01 0.25 0.14 83 1012.5
20260903184400 83 232 0.0 4.0 0.01 0.25 0.14 81 1012.5
20260903184259 83 232 1.0 4.0 0.01 0.25 0.14 81 1012.6
20260903184159 83 232 2.0 4.0 0.01 0.25 0.14 81 1012.5
20260903184100 83 244 3.0 4.0 0.01 0.25 0.14 81 1012.6
20260903184002 83 229 1.0 3.0 0.01 0.25 0.14 82 1012.6
20260903183759 83 229 0.0 3.0 0.01 0.25 0.14 80 1012.6
20260903183658 83 229 2.0 3.0 0.01 0.25 0.14 80 1012.6
20260903183559 83 228 2.0 3.0 0.01 0.25 0.14 80 1012.7
20260903183501 83 199 2.0 2.0 0.01 0.25 0.14 82 1012.7
20260903183358 83 140 0.0 2.0 0.01 0.25 0.14 83 1012.7
20260903183159 83 139 0.0 2.0 0.01 0.25 0.14 82 1012.6
20260903183100 83 139 0.0 2.0 0.01 0.25 0.14 81 1012.7
20260903183002 83 205 2.0 4.0 0.01 0.25 0.14 82 1012.7
20260903182900 83 238 1.0 4.0 0.01 0.25 0.14 81 1012.8
20260903182759 83 259 1.0 4.0 0.01 0.25 0.14 80 1012.7
20260903182701 83 259 0.0 4.0 0.01 0.25 0.14 79 1012.7
20260903182559 83 259 1.0 4.0 0.01 0.25 0.14 79 1012.8
20260903182500 84 259 2.0 4.0 0.01 0.25 0.14 81 1012.8
20260903182159 84 259 1.0 4.0 0.01 0.25 0.14 79 1012.8
20260903182002 84 175 1.0 3.0 0.02 0.25 0.14 81 1012.8
20260903181901 84 175 1.0 3.0 0.02 0.25 0.14 81 1012.8
20260903181759 83 138 0.0 3.0 0.02 0.25 0.14 81 1012.8
20260903181659 83 138 2.0 4.0 0.02 0.25 0.14 81 1012.8
20260903181600 83 281 1.0 4.0 0.02 0.25 0.14 81 1012.8
20260903181502 83 281 2.0 4.0 0.02 0.25 0.14 80 1012.8
20260903181400 83 281 2.0 4.0 0.02 0.25 0.14 81 1012.8
20260903181259 83 215 1.0 4.0 0.02 0.25 0.14 80 1012.8
20260903181200 83 215 1.0 4.0 0.02 0.25 0.14 80 1012.8
20260903181100 83 215 0.0 4.0 0.02 0.25 0.14 81 1012.9
20260903181003 83 156 2.0 4.0 0.02 0.25 0.14 82 1013.0
20260903180900 83 98 0.0 4.0 0.02 0.25 0.14 81 1013.0
20260903180759 83 96 2.0 4.0 0.02 0.25 0.14 81 1013.1
20260903180700 83 256 2.0 4.0 0.02 0.25 0.14 79 1013.1
20260903180358 83 213 2.0 4.0 0.02 0.25 0.14 81 1013.1
20260903180200 83 211 1.0 4.0 0.02 0.25 0.14 81 1013.1
20260903180100 83 211 1.0 4.0 0.01 0.24 0.13 80 1013.0
20260903180003 83 206 2.0 3.0 0.01 0.24 0.13 81 1013.0
20260903175900 83 205 1.0 3.0 0.01 0.31 0.13 81 1013.0
20260903175759 83 205 0.0 3.0 0.01 0.31 0.13 82 1013.1
20260903175601 83 277 2.0 3.0 0.01 0.31 0.13 81 1013.0
20260903175501 83 277 1.0 4.0 0.01 0.31 0.13 81 1013.1
20260903175359 83 277 1.0 4.0 0.01 0.31 0.13 81 1013.1
20260903175300 83 273 0.0 4.0 0.01 0.31 0.13 81 1013.2
20260903175159 83 273 0.0 4.0 0.01 0.31 0.13 81 1013.2
20260903175100 83 65 0.0 4.0 0.01 0.31 0.13 82 1013.2
20260903175001 83 80 3.0 4.0 0.01 0.31 0.13 82 1013.2
20260903174900 83 262 1.0 4.0 0.01 0.31 0.13 81 1013.2
20260903174800 83 262 0.0 4.0 0.01 0.31 0.13 81 1013.1
20260903174659 82 262 1.0 4.0 0.01 0.31 0.13 82 1013.2
20260903174559 82 262 1.0 4.0 0.01 0.31 0.13 82 1013.2
20260903174502 82 199 0.0 3.0 0.01 0.31 0.13 82 1013.2
20260903174400 82 199 1.0 3.0 0.01 0.31 0.13 81 1013.2
20260903174259 82 199 1.0 3.0 0.01 0.31 0.13 82 1013.2
20260903174200 82 198 1.0 3.0 0.01 0.31 0.13 81 1013.2
20260903174000 82 198 2.0 3.0 0.01 0.31 0.13 82 1013.3
20260903173859 82 198 2.0 3.0 0.01 0.31 0.13 82 1013.3
20260903173700 82 181 2.0 7.0 0.01 0.31 0.13 83 1013.2
20260903173558 82 273 2.0 7.0 0.01 0.31 0.13 82 1013.2
20260903173503 82 242 1.0 7.0 0.01 0.31 0.13 83 1013.2
20260903173359 82 237 0.0 7.0 0.01 0.31 0.13 83 1013.2
20260903173259 82 237 0.0 7.0 0.01 0.31 0.13 82 1013.2
20260903173159 82 237 2.0 7.0 0.01 0.31 0.13 83 1013.2
20260903173101 82 237 2.0 7.0 0.01 0.31 0.13 84 1013.2
20260903173003 82 224 3.0 7.0 0.01 0.31 0.13 84 1013.1
20260903172859 82 145 2.0 7.0 0.01 0.31 0.13 84 1013.2
20260903172800 81 243 2.0 3.0 0.01 0.31 0.13 83 1013.2
20260903172700 81 264 1.0 3.0 0.01 0.31 0.13 84 1013.2
20260903172601 81 264 1.0 3.0 0.01 0.31 0.13 84 1013.2
20260903172502 81 264 0.0 3.0 0.01 0.31 0.13 83 1013.2
20260903172400 81 264 2.0 3.0 0.01 0.31 0.13 86 1013.2
20260903172201 81 250 1.0 3.0 0.01 0.31 0.13 85 1013.3
20260903172003 81 258 1.0 3.0 0.00 0.30 0.12 83 1013.4
20260903171858 81 258 2.0 4.0 0.00 0.30 0.12 84 1013.4
20260903171759 81 258 0.0 4.0 0.00 0.30 0.12 85 1013.4
20260903171659 81 258 2.0 4.0 0.00 0.30 0.12 84 1013.4
20260903171504 81 258 1.0 4.0 0.00 0.30 0.12 84 1013.4
20260903171400 81 258 1.0 4.0 0.00 0.30 0.12 85 1013.4
20260903171300 81 258 0.0 7.0 0.00 0.30 0.12 85 1013.4